M I D A S
Marine Information and Data Acquisition System
Tripno 2046 of the Zeeleeuw from 2011-02-23 07:51:06 to 2011-02-23 15:02:59
Back to CruiseResearch ActivitiesStationsMapUnderway DataData graphs

EquipmentUnitsComment
TimeDGPSUTC
LatitudeDGPSDM.mWGS84
LongitudeDGPSDM.mWGS84
TemperatureSBE03/SBE38deg celciusITS90
ConductivitySBE21S/mITS90
SalinitySBE21 Practical Salinity Units
ChlorophylAChelsea fluorimeterg/lCalibrated in Aceton
Missing or incorrect values are displayed as -999
Sea surface data collected by the RV Zeeleeuw from 2011-02-23 06:56:33 to 2011-02-23 15:09:00
                                                                                    Next 1000 lines
Time Latitude Longitude Temperature Conductivity Salinity ChlorophylA
2011-02-23 06:56:43 51°13.665 2°55.955 13.8441 0.018148 0.093653 0.35757
2011-02-23 06:56:48 51°13.665 2°55.956 13.8454 0.018148 0.093655 0.35757
2011-02-23 06:56:53 51°13.665 2°55.956 13.8459 0.018148 0.093657 0.322746
2011-02-23 06:56:58 51°13.665 2°55.956 13.8451 0.018148 0.093658 0.35757
2011-02-23 06:57:03 51°13.665 2°55.956 13.8454 0.018148 0.093658 0.35757
2011-02-23 06:57:09 51°13.664 2°55.956 13.8454 0.018148 0.093661 0.35757
2011-02-23 06:57:13 51°13.664 2°55.956 13.8439 0.018148 0.093661 0.35757
2011-02-23 06:57:18 51°13.665 2°55.956 13.8467 0.018148 0.093662 0.35757
2011-02-23 06:57:23 51°13.665 2°55.956 13.8464 0.018148 0.093663 0.35757
2011-02-23 06:57:28 51°13.665 2°55.956 13.8459 0.018148 0.093664 0.35757
2011-02-23 06:57:33 51°13.665 2°55.957 13.8482 0.018148 0.093665 0.35757
2011-02-23 06:57:38 51°13.665 2°55.957 13.8489 0.018148 0.093667 0.35757
2011-02-23 06:57:43 51°13.664 2°55.958 13.8504 0.018148 0.093667 0.35757
2011-02-23 06:57:48 51°13.664 2°55.958 13.8508 0.018148 0.093669 0.35757
2011-02-23 06:57:53 51°13.664 2°55.958 13.8475 0.018148 0.09367 0.35757
2011-02-23 06:57:58 51°13.664 2°55.958 13.8453 0.018148 0.093671 0.35757
2011-02-23 06:58:03 51°13.664 2°55.958 13.845 0.018148 0.093673 0.35757
2011-02-23 06:58:07 51°13.663 2°55.958 13.8445 0.018148 0.093673 0.392394
2011-02-23 06:58:13 51°13.662 2°55.958 13.8424 0.018148 0.093673 0.392394
2011-02-23 06:58:18 51°13.662 2°55.959 13.8419 0.018148 0.093675 0.322746
2011-02-23 06:58:23 51°13.662 2°55.959 13.8405 0.018148 0.093675 0.35757
2011-02-23 06:58:28 51°13.662 2°55.959 13.8391 0.018148 0.093676 0.35757
2011-02-23 06:58:33 51°13.662 2°55.959 13.8394 0.018148 0.093679 0.35757
2011-02-23 06:58:38 51°13.662 2°55.959 13.8408 0.018148 0.093679 0.35757
2011-02-23 06:58:43 51°13.662 2°55.959 13.8432 0.018148 0.093679 0.35757
2011-02-23 06:58:48 51°13.662 2°55.959 13.8449 0.018148 0.093681 0.35757
2011-02-23 06:58:53 51°13.662 2°55.959 13.8434 0.018148 0.093683 0.35757
2011-02-23 06:58:58 51°13.662 2°55.959 13.8383 0.018148 0.093685 0.35757
2011-02-23 06:59:03 51°13.662 2°55.958 13.8359 0.018148 0.093685 0.35757
2011-02-23 06:59:08 51°13.662 2°55.959 13.8412 0.018148 0.093688 0.322746
2011-02-23 06:59:13 51°13.662 2°55.959 13.8394 0.018148 0.093688 0.322746
2011-02-23 06:59:18 51°13.662 2°55.959 13.8381 0.018148 0.093687 0.35757
2011-02-23 06:59:23 51°13.662 2°55.959 13.837 0.018148 0.093689 0.35757
2011-02-23 06:59:28 51°13.662 2°55.96 13.8337 0.018148 0.093691 0.35757
2011-02-23 06:59:33 51°13.662 2°55.96 13.8334 0.018148 0.093692 0.35757
2011-02-23 06:59:38 51°13.662 2°55.96 13.8295 0.018148 0.093693 0.35757
2011-02-23 06:59:43 51°13.662 2°55.96 13.8273 0.018148 0.093693 0.35757
2011-02-23 06:59:48 51°13.662 2°55.96 13.8283 0.018148 0.093694 0.35757
2011-02-23 06:59:53 51°13.661 2°55.96 13.8258 0.018148 0.093695 0.322746
2011-02-23 06:59:58 51°13.661 2°55.96 13.8256 0.018148 0.093697 0.322746
2011-02-23 07:00:03 51°13.661 2°55.96 13.8247 0.018148 0.093698 0.322746
2011-02-23 07:00:08 51°13.661 2°55.96 13.8213 0.018148 0.093699 0.35757
2011-02-23 07:00:13 51°13.661 2°55.96 13.8195 0.018148 0.093699 0.35757
2011-02-23 07:00:18 51°13.661 2°55.96 13.8176 0.018148 0.0937 0.322746
2011-02-23 07:00:23 51°13.662 2°55.96 13.8196 0.018148 0.093701 0.322746
2011-02-23 07:00:28 51°13.662 2°55.96 13.8223 0.018148 0.093701 0.322746
2011-02-23 07:00:33 51°13.662 2°55.961 13.8262 0.018148 0.093704 0.35757
2011-02-23 07:00:38 51°13.662 2°55.961 13.8259 0.018148 0.093705 0.322746
2011-02-23 07:00:43 51°13.662 2°55.961 13.8266 0.018148 0.093705 0.322746
2011-02-23 07:00:48 51°13.662 2°55.96 13.8246 0.018148 0.093706 0.35757
2011-02-23 07:00:52 51°13.662 2°55.96 13.8263 0.018148 0.093706 0.322746
2011-02-23 07:00:58 51°13.662 2°55.959 13.826 0.018148 0.093709 0.35757
2011-02-23 07:01:03 51°13.662 2°55.96 13.825 0.018148 0.09371 0.322746
2011-02-23 07:01:08 51°13.663 2°55.96 13.8226 0.018148 0.093711 0.35757
2011-02-23 07:01:13 51°13.663 2°55.96 13.8239 0.018148 0.093711 0.35757
2011-02-23 07:01:18 51°13.663 2°55.961 13.8256 0.018148 0.093711 0.35757
2011-02-23 07:01:23 51°13.663 2°55.961 13.8261 0.018148 0.093713 0.35757
2011-02-23 07:01:28 51°13.663 2°55.96 13.8271 0.018148 0.093713 0.322746
2011-02-23 07:01:33 51°13.663 2°55.96 13.8276 0.018148 0.093716 0.35757
2011-02-23 07:01:38 51°13.663 2°55.96 13.828 0.018148 0.093717 0.35757
2011-02-23 07:01:43 51°13.663 2°55.96 13.8292 0.018148 0.093717 0.35757
2011-02-23 07:01:48 51°13.663 2°55.96 13.8261 0.018148 0.093717 0.35757
2011-02-23 07:01:52 51°13.663 2°55.96 13.8278 0.018148 0.093718 0.35757
2011-02-23 07:01:58 51°13.663 2°55.96 13.827 0.018148 0.093721 0.35757
2011-02-23 07:02:03 51°13.663 2°55.96 13.8288 0.018148 0.093721 0.35757
2011-02-23 07:02:08 51°13.663 2°55.961 13.8289 0.018148 0.093722 0.392394
2011-02-23 07:02:13 51°13.663 2°55.961 13.8306 0.018148 0.093722 0.392394
2011-02-23 07:02:18 51°13.663 2°55.961 13.8306 0.018148 0.093723 0.35757
2011-02-23 07:02:23 51°13.662 2°55.961 13.8331 0.018148 0.093723 0.35757
2011-02-23 07:02:28 51°13.663 2°55.961 13.8356 0.018148 0.093725 0.322746
2011-02-23 07:02:33 51°13.663 2°55.961 13.8401 0.018148 0.093725 0.35757
2011-02-23 07:02:38 51°13.663 2°55.962 13.8407 0.018148 0.093726 0.322746
2011-02-23 07:02:43 51°13.663 2°55.962 13.8445 0.018148 0.093726 0.322746
2011-02-23 07:02:48 51°13.663 2°55.962 13.8457 0.018148 0.093728 0.35757
2011-02-23 07:02:53 51°13.663 2°55.962 13.8496 0.018148 0.093729 0.35757
2011-02-23 07:02:58 51°13.662 2°55.962 13.8509 0.018148 0.09373 0.35757
2011-02-23 07:03:03 51°13.662 2°55.961 13.8556 0.018148 0.093729 0.35757
2011-02-23 07:03:08 51°13.662 2°55.961 13.8573 0.018148 0.093732 0.35757
2011-02-23 07:03:13 51°13.662 2°55.961 13.8552 0.018148 0.093732 0.35757
2011-02-23 07:03:18 51°13.662 2°55.961 13.8558 0.018148 0.093732 0.35757
2011-02-23 07:03:23 51°13.662 2°55.961 13.8605 0.018148 0.093734 0.35757
2011-02-23 07:03:28 51°13.662 2°55.961 13.8549 0.018148 0.093735 0.35757
2011-02-23 07:03:33 51°13.662 2°55.961 13.85 0.018148 0.093737 0.35757
2011-02-23 07:03:38 51°13.662 2°55.961 13.8475 0.018148 0.093736 0.322746
2011-02-23 07:03:42 51°13.662 2°55.961 13.8427 0.018148 0.093736 0.322746
2011-02-23 07:03:48 51°13.662 2°55.961 13.8387 0.018148 0.093737 0.35757
2011-02-23 07:03:53 51°13.662 2°55.96 13.8396 0.018148 0.093738 0.35757
2011-02-23 07:03:58 51°13.662 2°55.96 13.8382 0.018148 0.09374 0.35757
2011-02-23 07:04:03 51°13.662 2°55.96 13.8354 0.018148 0.093741 0.35757
2011-02-23 07:04:08 51°13.662 2°55.961 13.8354 0.018148 0.093742 0.35757
2011-02-23 07:04:13 51°13.662 2°55.961 13.8459 0.018148 0.093742 0.35757
2011-02-23 07:04:18 51°13.662 2°55.961 13.8466 0.018148 0.093742 0.322746
2011-02-23 07:04:23 51°13.663 2°55.96 13.8476 0.018148 0.093743 0.35757
2011-02-23 07:04:27 51°13.663 2°55.96 13.8507 0.018148 0.093744 0.35757
2011-02-23 07:04:32 51°13.663 2°55.96 13.8489 0.018148 0.093746 0.35757
2011-02-23 07:04:38 51°13.663 2°55.96 13.8485 0.018148 0.093746 0.35757
2011-02-23 07:04:43 51°13.663 2°55.96 13.8491 0.018148 0.093746 0.35757
2011-02-23 07:04:47 51°13.663 2°55.96 13.8477 0.018148 0.093747 0.392394
2011-02-23 07:04:53 51°13.663 2°55.96 13.8455 0.018148 0.093747 0.35757
2011-02-23 07:04:58 51°13.663 2°55.96 13.8478 0.018148 0.093748 0.35757
2011-02-23 07:05:03 51°13.663 2°55.96 13.8504 0.018148 0.09375 0.35757
2011-02-23 07:05:08 51°13.663 2°55.96 13.8532 0.018148 0.093752 0.35757
2011-02-23 07:05:13 51°13.663 2°55.96 13.8554 0.018148 0.093752 0.35757
2011-02-23 07:05:18 51°13.663 2°55.96 13.852 0.018148 0.09375 0.322746
2011-02-23 07:05:23 51°13.663 2°55.96 13.8527 0.018148 0.093752 0.35757
2011-02-23 07:05:27 51°13.663 2°55.96 13.854 0.018148 0.093754 0.35757
2011-02-23 07:05:33 51°13.663 2°55.96 13.8492 0.018148 0.093754 0.35757
2011-02-23 07:05:37 51°13.663 2°55.96 13.8507 0.018148 0.093754 0.322746
2011-02-23 07:05:43 51°13.663 2°55.959 13.8521 0.018148 0.093756 0.35757
2011-02-23 07:05:48 51°13.663 2°55.959 13.8514 0.018148 0.093756 0.35757
2011-02-23 07:05:53 51°13.663 2°55.96 13.85 0.018148 0.093756 0.35757
2011-02-23 07:05:58 51°13.663 2°55.96 13.8501 0.018148 0.093756 0.35757
2011-02-23 07:06:03 51°13.663 2°55.96 13.8474 0.018148 0.093759 0.35757
2011-02-23 07:06:08 51°13.663 2°55.96 13.8418 0.018148 0.093758 0.35757
2011-02-23 07:06:13 51°13.663 2°55.96 13.841 0.018148 0.093758 0.35757
2011-02-23 07:06:18 51°13.662 2°55.96 13.8375 0.018148 0.093759 0.35757
2011-02-23 07:06:23 51°13.662 2°55.96 13.8413 0.018148 0.09376 0.322746
2011-02-23 07:06:28 51°13.662 2°55.96 13.8384 0.018148 0.093761 0.322746
2011-02-23 07:06:33 51°13.662 2°55.96 13.8385 0.018148 0.093761 0.35757
2011-02-23 07:06:38 51°13.662 2°55.96 13.8387 0.018148 0.093762 0.35757
2011-02-23 07:06:43 51°13.662 2°55.96 13.8416 0.018148 0.093762 0.35757
2011-02-23 07:06:48 51°13.662 2°55.96 13.8436 0.018148 0.093762 0.322746
2011-02-23 07:06:53 51°13.662 2°55.961 13.8427 0.018148 0.093764 0.35757
2011-02-23 07:06:58 51°13.662 2°55.961 13.8489 0.018148 0.093764 0.35757
2011-02-23 07:07:03 51°13.662 2°55.961 13.8496 0.018148 0.093765 0.35757
2011-02-23 07:07:08 51°13.662 2°55.96 13.8524 0.018148 0.093766 0.322746
2011-02-23 07:07:13 51°13.662 2°55.96 13.8535 0.018148 0.093766 0.322746
2011-02-23 07:07:17 51°13.662 2°55.96 13.8578 0.018148 0.093767 0.322746
2011-02-23 07:07:22 51°13.662 2°55.96 13.8549 0.018148 0.093768 0.322746
2011-02-23 07:07:28 51°13.663 2°55.959 13.8584 0.018148 0.09377 0.35757
2011-02-23 07:07:33 51°13.663 2°55.959 13.8584 0.018148 0.093768 0.35757
2011-02-23 07:07:38 51°13.663 2°55.959 13.8625 0.018148 0.093768 0.35757
2011-02-23 07:07:43 51°13.663 2°55.96 13.8704 0.018148 0.093768 0.35757
2011-02-23 07:07:48 51°13.663 2°55.96 13.8691 0.018148 0.09377 0.322746
2011-02-23 07:07:53 51°13.663 2°55.96 13.8776 0.018148 0.093771 0.322746
2011-02-23 07:07:58 51°13.663 2°55.961 13.8746 0.018148 0.093772 0.322746
2011-02-23 07:08:03 51°13.663 2°55.961 13.8762 0.018148 0.093773 0.322746
2011-02-23 07:08:08 51°13.663 2°55.961 13.8774 0.018148 0.093773 0.35757
2011-02-23 07:08:13 51°13.663 2°55.961 13.8788 0.018148 0.093773 0.35757
2011-02-23 07:08:18 51°13.663 2°55.961 13.8781 0.018148 0.093774 0.35757
2011-02-23 07:08:23 51°13.663 2°55.961 13.8731 0.018148 0.093776 0.322746
2011-02-23 07:08:28 51°13.663 2°55.96 13.8742 0.018148 0.093776 0.35757
2011-02-23 07:08:33 51°13.663 2°55.96 13.8762 0.018148 0.093776 0.35757
2011-02-23 07:08:38 51°13.663 2°55.96 13.8754 0.018148 0.093777 0.322746
2011-02-23 07:08:43 51°13.663 2°55.96 13.8795 0.018148 0.093778 0.35757
2011-02-23 07:08:48 51°13.663 2°55.96 13.8805 0.018148 0.093778 0.35757
2011-02-23 07:08:53 51°13.663 2°55.96 13.8787 0.018148 0.093778 0.35757
2011-02-23 07:08:58 51°13.663 2°55.96 13.8799 0.018148 0.093779 0.35757
2011-02-23 07:09:03 51°13.663 2°55.96 13.8806 0.018148 0.093779 0.35757
2011-02-23 07:09:08 51°13.663 2°55.96 13.8818 0.018148 0.09378 0.35757
2011-02-23 07:09:13 51°13.663 2°55.96 13.8813 0.018148 0.09378 0.35757
2011-02-23 07:09:18 51°13.663 2°55.96 13.8822 0.018148 0.09378 0.35757
2011-02-23 07:09:23 51°13.663 2°55.96 13.8777 0.018148 0.093782 0.35757
2011-02-23 07:09:28 51°13.663 2°55.959 13.8764 0.018148 0.093783 0.35757
2011-02-23 07:09:33 51°13.663 2°55.96 13.8795 0.018148 0.093783 0.35757
2011-02-23 07:09:38 51°13.663 2°55.96 13.8766 0.018148 0.093784 0.322746
2011-02-23 07:09:43 51°13.663 2°55.959 13.8784 0.018148 0.093784 0.322746
2011-02-23 07:09:48 51°13.663 2°55.959 13.8788 0.018148 0.093785 0.35757
2011-02-23 07:09:53 51°13.663 2°55.96 13.8775 0.018148 0.093786 0.35757
2011-02-23 07:09:58 51°13.663 2°55.959 13.8749 0.018148 0.093785 0.322746
2011-02-23 07:10:03 51°13.663 2°55.959 13.8757 0.018148 0.093786 0.35757
2011-02-23 07:10:08 51°13.663 2°55.96 13.8787 0.018148 0.093788 0.35757
2011-02-23 07:10:13 51°13.663 2°55.959 13.881 0.018148 0.093788 0.35757
2011-02-23 07:10:18 51°13.663 2°55.959 13.8798 0.018148 0.093788 0.35757
2011-02-23 07:10:23 51°13.663 2°55.959 13.8821 0.018148 0.09379 0.322746
2011-02-23 07:10:28 51°13.663 2°55.96 13.8826 0.018148 0.09379 0.35757
2011-02-23 07:10:33 51°13.663 2°55.96 13.8836 0.018148 0.093789 0.35757
2011-02-23 07:10:38 51°13.663 2°55.96 13.8849 0.018148 0.093791 0.322746
2011-02-23 07:10:43 51°13.663 2°55.96 13.8879 0.018148 0.093791 0.322746
2011-02-23 07:10:47 51°13.663 2°55.96 13.8876 0.018148 0.093792 0.322746
2011-02-23 07:10:53 51°13.663 2°55.959 13.8856 0.018148 0.093792 0.35757
2011-02-23 07:10:58 51°13.663 2°55.959 13.8816 0.018148 0.093794 0.322746
2011-02-23 07:11:03 51°13.663 2°55.959 13.8832 0.018148 0.093795 0.35757
2011-02-23 07:11:08 51°13.663 2°55.96 13.8836 0.018148 0.093795 0.392394
2011-02-23 07:11:13 51°13.663 2°55.96 13.8841 0.018148 0.093795 0.392394
2011-02-23 07:11:18 51°13.663 2°55.96 13.8838 0.018148 0.093797 0.322746
2011-02-23 07:11:23 51°13.663 2°55.96 13.8831 0.018148 0.093797 0.392394
2011-02-23 07:11:28 51°13.663 2°55.96 13.8821 0.018148 0.093798 0.392394
2011-02-23 07:11:33 51°13.663 2°55.96 13.8835 0.018148 0.093798 0.35757
2011-02-23 07:11:38 51°13.663 2°55.96 13.884 0.018148 0.0938 0.35757
2011-02-23 07:11:43 51°13.663 2°55.96 13.8847 0.018148 0.0938 0.35757
2011-02-23 07:11:48 51°13.663 2°55.96 13.8872 0.018148 0.0938 0.392394
2011-02-23 07:11:53 51°13.663 2°55.96 13.8904 0.018148 0.093801 0.35757
2011-02-23 07:11:58 51°13.663 2°55.96 13.8908 0.018148 0.093802 0.35757
2011-02-23 07:12:03 51°13.663 2°55.96 13.8911 0.018148 0.093802 0.35757
2011-02-23 07:12:08 51°13.663 2°55.96 13.8906 0.018148 0.093803 0.35757
2011-02-23 07:12:13 51°13.663 2°55.96 13.8882 0.018148 0.093803 0.35757
2011-02-23 07:12:18 51°13.663 2°55.96 13.8869 0.018148 0.093805 0.35757
2011-02-23 07:12:23 51°13.662 2°55.96 13.8865 0.018148 0.093805 0.392394
2011-02-23 07:12:28 51°13.662 2°55.96 13.8872 0.018148 0.093806 0.35757
2011-02-23 07:12:33 51°13.662 2°55.96 13.8851 0.018148 0.093807 0.35757
2011-02-23 07:12:38 51°13.662 2°55.96 13.8857 0.018148 0.093807 0.35757
2011-02-23 07:12:43 51°13.662 2°55.96 13.8854 0.018148 0.093807 0.35757
2011-02-23 07:12:48 51°13.662 2°55.96 13.8863 0.018148 0.093808 0.35757
2011-02-23 07:12:53 51°13.662 2°55.96 13.8861 0.018044 0.093292 0.35757
2011-02-23 07:12:58 51°13.662 2°55.96 13.8871 0.018148 0.093811 0.35757
2011-02-23 07:13:03 51°13.663 2°55.959 13.8863 0.018148 0.093811 0.35757
2011-02-23 07:13:08 51°13.662 2°55.96 13.8849 0.018044 0.093295 0.392394
2011-02-23 07:13:13 51°13.662 2°55.96 13.8829 0.018044 0.093295 0.392394
2011-02-23 07:13:17 51°13.662 2°55.96 13.8813 0.018148 0.093813 0.35757
2011-02-23 07:13:22 51°13.662 2°55.96 13.8827 0.018148 0.093813 0.35757
2011-02-23 07:13:28 51°13.662 2°55.96 13.8827 0.018148 0.093814 0.35757
2011-02-23 07:13:33 51°13.662 2°55.96 13.8876 0.018148 0.093814 0.35757
2011-02-23 07:13:38 51°13.662 2°55.96 13.8906 0.018148 0.093815 0.35757
2011-02-23 07:13:43 51°13.662 2°55.96 13.8921 0.018148 0.093815 0.35757
2011-02-23 07:13:48 51°13.662 2°55.96 13.8954 0.018148 0.093817 0.35757
2011-02-23 07:13:53 51°13.662 2°55.96 13.8965 0.018148 0.093819 0.35757
2011-02-23 07:13:58 51°13.662 2°55.96 13.8969 0.018044 0.093302 0.392394
2011-02-23 07:14:03 51°13.662 2°55.96 13.8984 0.018148 0.093819 0.35757
2011-02-23 07:14:08 51°13.662 2°55.961 13.8982 0.018148 0.093821 0.392394
2011-02-23 07:14:13 51°13.662 2°55.961 13.897 0.018148 0.093823 0.35757
2011-02-23 07:14:18 51°13.662 2°55.961 13.8962 0.018148 0.093823 0.35757
2011-02-23 07:14:23 51°13.662 2°55.961 13.8955 0.018044 0.093305 0.35757
2011-02-23 07:14:27 51°13.662 2°55.961 13.8935 0.018148 0.093824 0.35757
2011-02-23 07:14:32 51°13.662 2°55.961 13.8925 0.018148 0.093825 0.35757
2011-02-23 07:14:38 51°13.662 2°55.96 13.8958 0.018148 0.093825 0.35757
2011-02-23 07:14:43 51°13.662 2°55.961 13.8962 0.018148 0.093825 0.35757
2011-02-23 07:14:48 51°13.662 2°55.961 13.8997 0.018148 0.093827 0.392394
2011-02-23 07:14:53 51°13.662 2°55.96 13.901 0.018148 0.093827 0.35757
2011-02-23 07:14:58 51°13.662 2°55.961 13.9003 0.018148 0.093829 0.35757
2011-02-23 07:15:03 51°13.662 2°55.961 13.8994 0.018148 0.093829 0.35757
2011-02-23 07:15:08 51°13.662 2°55.962 13.902 0.018044 0.093313 0.35757
2011-02-23 07:15:13 51°13.662 2°55.961 13.9007 0.018044 0.093313 0.35757
2011-02-23 07:15:18 51°13.662 2°55.96 13.8997 0.018044 0.093315 0.35757
2011-02-23 07:15:23 51°13.662 2°55.96 13.8997 0.018044 0.093316 0.322746
2011-02-23 07:15:28 51°13.662 2°55.96 13.8996 0.018044 0.093317 0.35757
2011-02-23 07:15:33 51°13.662 2°55.96 13.9024 0.018044 0.093319 0.35757
2011-02-23 07:15:38 51°13.662 2°55.96 13.905 0.018044 0.09332 0.35757
2011-02-23 07:15:42 51°13.662 2°55.96 13.9077 0.018044 0.09332 0.35757
2011-02-23 07:15:47 51°13.662 2°55.959 13.9097 0.018148 0.093837 0.392394
2011-02-23 07:15:53 51°13.662 2°55.96 13.907 0.018148 0.093838 0.35757
2011-02-23 07:15:58 51°13.662 2°55.96 13.9069 0.018044 0.093323 0.35757
2011-02-23 07:16:03 51°13.662 2°55.96 13.9082 0.018044 0.093323 0.35757
2011-02-23 07:16:08 51°13.662 2°55.96 13.9037 0.018044 0.093325 0.392394
2011-02-23 07:16:13 51°13.662 2°55.961 13.9099 0.018044 0.093325 0.392394
2011-02-23 07:16:18 51°13.662 2°55.96 13.9116 0.018044 0.093326 0.35757
2011-02-23 07:16:23 51°13.662 2°55.96 13.9081 0.018148 0.093844 0.392394
2011-02-23 07:16:28 51°13.662 2°55.96 13.9053 0.018044 0.093328 0.35757
2011-02-23 07:16:33 51°13.662 2°55.96 13.9036 0.018044 0.093329 0.322746
2011-02-23 07:16:38 51°13.662 2°55.96 13.9031 0.018148 0.093848 0.392394
2011-02-23 07:16:43 51°13.662 2°55.96 13.8973 0.018148 0.093848 0.392394
2011-02-23 07:16:48 51°13.662 2°55.96 13.8934 0.018044 0.093332 0.35757
2011-02-23 07:16:53 51°13.662 2°55.96 13.9007 0.018148 0.093851 0.35757
2011-02-23 07:16:58 51°13.662 2°55.96 13.9008 0.018044 0.093334 0.35757
2011-02-23 07:17:03 51°13.662 2°55.96 13.9029 0.018148 0.093853 0.35757
2011-02-23 07:17:08 51°13.662 2°55.959 13.9042 0.018044 0.093338 0.35757
2011-02-23 07:17:13 51°13.662 2°55.959 13.9057 0.018044 0.093338 0.322746
2011-02-23 07:17:18 51°13.661 2°55.959 13.9048 0.018044 0.093338 0.322746
2011-02-23 07:17:23 51°13.661 2°55.959 13.9069 0.018044 0.093339 0.35757
2011-02-23 07:17:28 51°13.661 2°55.959 13.9098 0.018044 0.09334 0.35757
2011-02-23 07:17:32 51°13.661 2°55.959 13.9127 0.018044 0.093341 0.35757
2011-02-23 07:17:37 51°13.661 2°55.959 13.913 0.018044 0.093342 0.392394
2011-02-23 07:17:42 51°13.661 2°55.959 13.9119 0.018044 0.093342 0.392394
2011-02-23 07:17:48 51°13.661 2°55.959 13.9122 0.018044 0.093344 0.35757
2011-02-23 07:17:53 51°13.661 2°55.959 13.9115 0.018148 0.093863 0.35757
2011-02-23 07:17:58 51°13.661 2°55.959 13.9099 0.018044 0.093347 0.35757
2011-02-23 07:18:03 51°13.661 2°55.959 13.9127 0.018044 0.093348 0.392394
2011-02-23 07:18:08 51°13.661 2°55.959 13.9127 0.018044 0.093348 0.35757
2011-02-23 07:18:13 51°13.661 2°55.959 13.9138 0.018044 0.093348 0.35757
2011-02-23 07:18:18 51°13.661 2°55.959 13.9139 0.018044 0.09335 0.35757
2011-02-23 07:18:23 51°13.661 2°55.96 13.9154 0.018044 0.093352 0.35757
2011-02-23 07:18:28 51°13.661 2°55.959 13.913 0.018044 0.093352 0.35757
2011-02-23 07:18:33 51°13.661 2°55.959 13.9145 0.018044 0.093354 0.35757
2011-02-23 07:18:38 51°13.661 2°55.959 13.9159 0.018044 0.093356 0.35757
2011-02-23 07:18:43 51°13.662 2°55.959 13.9187 0.018044 0.093356 0.35757
2011-02-23 07:18:48 51°13.662 2°55.959 13.9164 0.018044 0.093357 0.322746
2011-02-23 07:18:53 51°13.662 2°55.959 13.9153 0.018044 0.093358 0.35757
2011-02-23 07:18:58 51°13.662 2°55.959 13.914 0.018044 0.09336 0.35757
2011-02-23 07:19:02 51°13.662 2°55.959 13.9156 0.018044 0.093362 0.35757
2011-02-23 07:19:08 51°13.662 2°55.959 13.9141 0.018044 0.093362 0.392394
2011-02-23 07:19:13 51°13.662 2°55.959 13.9131 0.018044 0.093364 0.322746
2011-02-23 07:19:18 51°13.661 2°55.959 13.9137 0.018044 0.093364 0.322746
2011-02-23 07:19:23 51°13.662 2°55.959 13.9126 0.018044 0.093364 0.35757
2011-02-23 07:19:28 51°13.661 2°55.959 13.9145 0.018044 0.093365 0.392394
2011-02-23 07:19:33 51°13.661 2°55.959 13.9171 0.018044 0.093366 0.35757
2011-02-23 07:19:38 51°13.661 2°55.959 13.9189 0.018044 0.093369 0.35757
2011-02-23 07:19:43 51°13.662 2°55.959 13.9198 0.018044 0.093369 0.35757
2011-02-23 07:19:47 51°13.662 2°55.959 13.9218 0.018044 0.09337 0.35757
2011-02-23 07:19:53 51°13.661 2°55.959 13.9218 0.018044 0.093371 0.392394
2011-02-23 07:19:58 51°13.662 2°55.959 13.9236 0.018044 0.093372 0.392394
2011-02-23 07:20:03 51°13.661 2°55.959 13.9261 0.018044 0.093374 0.35757
2011-02-23 07:20:08 51°13.661 2°55.959 13.9261 0.018044 0.093376 0.392394
2011-02-23 07:20:13 51°13.661 2°55.959 13.9251 0.018044 0.093376 0.392394
2011-02-23 07:20:18 51°13.662 2°55.959 13.9253 0.018044 0.093376 0.392394
2011-02-23 07:20:23 51°13.661 2°55.959 13.9254 0.018044 0.093377 0.35757
2011-02-23 07:20:28 51°13.661 2°55.959 13.9282 0.018044 0.09338 0.35757
2011-02-23 07:20:33 51°13.661 2°55.959 13.9311 0.018044 0.093381 0.35757
2011-02-23 07:20:38 51°13.661 2°55.959 13.9347 0.018044 0.093381 0.35757
2011-02-23 07:20:43 51°13.661 2°55.96 13.9299 0.018044 0.093381 0.35757
2011-02-23 07:20:48 51°13.661 2°55.959 13.9294 0.018044 0.093383 0.35757
2011-02-23 07:20:53 51°13.661 2°55.96 13.9324 0.018044 0.093384 0.35757
2011-02-23 07:20:58 51°13.66 2°55.96 13.9337 0.018044 0.093384 0.35757
2011-02-23 07:21:03 51°13.66 2°55.96 13.9309 0.018044 0.093387 0.35757
2011-02-23 07:21:07 51°13.66 2°55.96 13.9326 0.018044 0.093388 0.35757
2011-02-23 07:21:13 51°13.66 2°55.96 13.9361 0.018044 0.093388 0.35757
2011-02-23 07:21:18 51°13.66 2°55.96 13.9373 0.018044 0.093388 0.35757
2011-02-23 07:21:23 51°13.66 2°55.96 13.9397 0.018044 0.09339 0.35757
2011-02-23 07:21:28 51°13.66 2°55.96 13.9398 0.018044 0.093391 0.392394
2011-02-23 07:21:33 51°13.66 2°55.96 13.9398 0.018044 0.093391 0.35757
2011-02-23 07:21:38 51°13.66 2°55.96 13.9381 0.018044 0.093394 0.35757
2011-02-23 07:21:43 51°13.66 2°55.96 13.9357 0.018044 0.093394 0.35757
2011-02-23 07:21:48 51°13.66 2°55.96 13.9317 0.018044 0.093395 0.35757
2011-02-23 07:21:53 51°13.66 2°55.96 13.9352 0.018044 0.093396 0.35757
2011-02-23 07:21:58 51°13.66 2°55.96 13.9384 0.018044 0.093396 0.35757
2011-02-23 07:22:03 51°13.66 2°55.96 13.9416 0.018044 0.093399 0.35757
2011-02-23 07:22:08 51°13.66 2°55.96 13.9402 0.018044 0.093399 0.35757
2011-02-23 07:22:13 51°13.66 2°55.96 13.9404 0.018044 0.093399 0.35757
2011-02-23 07:22:18 51°13.66 2°55.96 13.9405 0.018044 0.093401 0.35757
2011-02-23 07:22:23 51°13.661 2°55.96 13.9415 0.018044 0.093401 0.35757
2011-02-23 07:22:28 51°13.661 2°55.96 13.9427 0.018044 0.093402 0.35757
2011-02-23 07:22:33 51°13.661 2°55.959 13.9407 0.018044 0.093405 0.35757
2011-02-23 07:22:37 51°13.661 2°55.959 13.9402 0.018044 0.093406 0.35757
2011-02-23 07:22:43 51°13.661 2°55.959 13.9415 0.018044 0.093407 0.392394
2011-02-23 07:22:47 51°13.661 2°55.959 13.9449 0.018044 0.093407 0.392394
2011-02-23 07:22:53 51°13.661 2°55.959 13.9497 0.018044 0.093408 0.392394
2011-02-23 07:22:58 51°13.661 2°55.959 13.9524 0.018044 0.093408 0.35757
2011-02-23 07:23:03 51°13.661 2°55.959 13.9553 0.018044 0.093411 0.392394
2011-02-23 07:23:08 51°13.661 2°55.959 13.9532 0.018044 0.093412 0.392394
2011-02-23 07:23:13 51°13.661 2°55.959 13.9489 0.018044 0.093412 0.392394
2011-02-23 07:23:18 51°13.661 2°55.959 13.9466 0.018044 0.093413 0.35757
2011-02-23 07:23:23 51°13.661 2°55.959 13.9411 0.018044 0.093414 0.322746
2011-02-23 07:23:27 51°13.661 2°55.959 13.9428 0.018044 0.093415 0.35757
2011-02-23 07:23:33 51°13.661 2°55.959 13.9453 0.018044 0.093417 0.35757
2011-02-23 07:23:37 51°13.661 2°55.959 13.943 0.018044 0.093418 0.392394
2011-02-23 07:23:43 51°13.661 2°55.959 13.9413 0.018044 0.09342 0.35757
2011-02-23 07:23:48 51°13.661 2°55.96 13.9442 0.018044 0.09342 0.35757
2011-02-23 07:23:53 51°13.661 2°55.959 13.9443 0.018044 0.093421 0.35757
2011-02-23 07:23:58 51°13.66 2°55.96 13.9467 0.018044 0.093423 0.35757
2011-02-23 07:24:03 51°13.661 2°55.96 13.95 0.018044 0.093425 0.35757
2011-02-23 07:24:08 51°13.661 2°55.96 13.9503 0.018044 0.093425 0.35757
2011-02-23 07:24:13 51°13.661 2°55.96 13.9437 0.018044 0.093425 0.35757
2011-02-23 07:24:18 51°13.661 2°55.96 13.9379 0.018044 0.093427 0.35757
2011-02-23 07:24:23 51°13.661 2°55.96 13.9406 0.018044 0.093429 0.35757
2011-02-23 07:24:28 51°13.661 2°55.96 13.946 0.018044 0.09343 0.322746
2011-02-23 07:24:33 51°13.661 2°55.96 13.9481 0.018044 0.093431 0.35757
2011-02-23 07:24:38 51°13.661 2°55.959 13.9518 0.018044 0.093433 0.35757
2011-02-23 07:24:43 51°13.661 2°55.96 13.9559 0.018044 0.093433 0.35757
2011-02-23 07:24:48 51°13.661 2°55.96 13.9531 0.018044 0.093435 0.392394
2011-02-23 07:24:53 51°13.661 2°55.96 13.9539 0.018044 0.093437 0.322746
2011-02-23 07:24:57 51°13.661 2°55.96 13.9525 0.018044 0.093437 0.35757
2011-02-23 07:25:02 51°13.661 2°55.959 13.9497 0.018044 0.093438 0.35757
2011-02-23 07:25:07 51°13.661 2°55.959 13.9497 0.018044 0.093439 0.322746
2011-02-23 07:25:13 51°13.661 2°55.96 13.9487 0.018044 0.093442 0.392394
2011-02-23 07:25:18 51°13.661 2°55.96 13.9482 0.018044 0.093442 0.392394
2011-02-23 07:25:23 51°13.661 2°55.96 13.9456 0.018044 0.093443 0.392394
2011-02-23 07:25:28 51°13.662 2°55.96 13.949 0.018044 0.093445 0.35757
2011-02-23 07:25:33 51°13.661 2°55.959 13.9521 0.018044 0.093445 0.35757
2011-02-23 07:25:38 51°13.661 2°55.96 13.9525 0.018044 0.093448 0.392394
2011-02-23 07:25:43 51°13.661 2°55.96 13.9545 0.018044 0.09345 0.35757
2011-02-23 07:25:48 51°13.662 2°55.96 13.9571 0.018044 0.09345 0.35757
2011-02-23 07:25:53 51°13.662 2°55.96 13.955 0.018044 0.093451 0.35757
2011-02-23 07:25:58 51°13.662 2°55.96 13.952 0.018044 0.093453 0.35757
2011-02-23 07:26:03 51°13.661 2°55.96 13.9451 0.018044 0.093453 0.35757
2011-02-23 07:26:08 51°13.662 2°55.96 13.9406 0.018044 0.093456 0.35757
2011-02-23 07:26:13 51°13.661 2°55.96 13.9419 0.018044 0.093456 0.35757
2011-02-23 07:26:18 51°13.661 2°55.96 13.944 0.018044 0.093456 0.35757
2011-02-23 07:26:23 51°13.662 2°55.96 13.9419 0.018044 0.093459 0.392394
2011-02-23 07:26:28 51°13.662 2°55.96 13.9414 0.018044 0.09346 0.35757
2011-02-23 07:26:33 51°13.662 2°55.96 13.9469 0.018044 0.093462 0.35757
2011-02-23 07:26:38 51°13.661 2°55.96 13.9478 0.018044 0.093462 0.35757
2011-02-23 07:26:42 51°13.662 2°55.96 13.954 0.018044 0.093462 0.35757
2011-02-23 07:26:48 51°13.662 2°55.96 13.9532 0.018044 0.093466 0.35757
2011-02-23 07:26:53 51°13.662 2°55.96 13.9583 0.018044 0.093466 0.35757
2011-02-23 07:26:58 51°13.662 2°55.96 13.956 0.018044 0.093468 0.35757
2011-02-23 07:27:03 51°13.662 2°55.96 13.9576 0.018044 0.093469 0.35757
2011-02-23 07:27:08 51°13.661 2°55.96 13.9601 0.018044 0.093471 0.35757
2011-02-23 07:27:13 51°13.662 2°55.96 13.9582 0.018044 0.093471 0.35757
2011-02-23 07:27:18 51°13.661 2°55.96 13.9539 0.018044 0.093472 0.35757
2011-02-23 07:27:23 51°13.661 2°55.96 13.9495 0.018044 0.093473 0.35757
2011-02-23 07:27:28 51°13.661 2°55.96 13.9507 0.018044 0.093474 0.322746
2011-02-23 07:27:33 51°13.661 2°55.96 13.9503 0.018044 0.093477 0.35757
2011-02-23 07:27:38 51°13.661 2°55.96 13.9494 0.018044 0.093477 0.35757
2011-02-23 07:27:43 51°13.661 2°55.96 13.9471 0.018044 0.093477 0.35757
2011-02-23 07:27:48 51°13.661 2°55.96 13.9505 0.018044 0.093479 0.35757
2011-02-23 07:27:53 51°13.662 2°55.96 13.9572 0.018044 0.09348 0.35757
2011-02-23 07:27:58 51°13.662 2°55.96 13.9523 0.018044 0.09348 0.35757
2011-02-23 07:28:03 51°13.662 2°55.96 13.9561 0.018044 0.093483 0.35757
2011-02-23 07:28:08 51°13.662 2°55.96 13.9602 0.018044 0.093484 0.35757
2011-02-23 07:28:13 51°13.662 2°55.96 13.9626 0.018044 0.093484 0.35757
2011-02-23 07:28:18 51°13.662 2°55.96 13.9626 0.018044 0.093486 0.392394
2011-02-23 07:28:23 51°13.662 2°55.96 13.9639 0.018044 0.093487 0.35757
2011-02-23 07:28:28 51°13.662 2°55.96 13.9663 0.018044 0.093489 0.35757
2011-02-23 07:28:33 51°13.662 2°55.96 13.9652 0.018044 0.09349 0.392394
2011-02-23 07:28:38 51°13.662 2°55.96 13.9681 0.018044 0.093491 0.322746
2011-02-23 07:28:43 51°13.662 2°55.96 13.9713 0.018044 0.093491 0.322746
2011-02-23 07:28:48 51°13.662 2°55.96 13.9731 0.018044 0.093493 0.35757
2011-02-23 07:28:53 51°13.662 2°55.96 13.972 0.018044 0.093495 0.35757
2011-02-23 07:28:58 51°13.662 2°55.96 13.972 0.018044 0.093495 0.35757
2011-02-23 07:29:03 51°13.662 2°55.959 13.972 0.018044 0.093496 0.35757
2011-02-23 07:29:07 51°13.662 2°55.959 13.971 0.018044 0.093497 0.35757
2011-02-23 07:29:12 51°13.663 2°55.96 13.9732 0.018044 0.093497 0.35757
2011-02-23 07:29:18 51°13.663 2°55.959 13.9703 0.018044 0.093498 0.392394
2011-02-23 07:29:23 51°13.663 2°55.959 13.9698 0.018044 0.093501 0.35757
2011-02-23 07:29:28 51°13.663 2°55.96 13.9695 0.018044 0.093502 0.35757
2011-02-23 07:29:33 51°13.663 2°55.96 13.9713 0.018044 0.093504 0.392394
2011-02-23 07:29:38 51°13.663 2°55.959 13.9695 0.018044 0.093504 0.392394
2011-02-23 07:29:43 51°13.663 2°55.959 13.9725 0.018044 0.093504 0.392394
2011-02-23 07:29:48 51°13.663 2°55.959 13.9725 0.018044 0.093505 0.35757
2011-02-23 07:29:52 51°13.663 2°55.959 13.9721 0.018044 0.093507 0.392394
2011-02-23 07:29:58 51°13.663 2°55.959 13.9744 0.018044 0.093509 0.35757
2011-02-23 07:30:03 51°13.663 2°55.959 13.977 0.018044 0.093509 0.35757
2011-02-23 07:30:08 51°13.663 2°55.959 13.9809 0.018044 0.093511 0.35757
2011-02-23 07:30:13 51°13.663 2°55.959 13.9829 0.018044 0.093511 0.35757
2011-02-23 07:30:18 51°13.663 2°55.959 13.9844 0.018044 0.093513 0.35757
2011-02-23 07:30:23 51°13.663 2°55.959 13.9858 0.018044 0.093514 0.35757
2011-02-23 07:30:28 51°13.664 2°55.959 13.986 0.018044 0.093515 0.35757
2011-02-23 07:30:33 51°13.664 2°55.959 13.9878 0.018044 0.093517 0.35757
2011-02-23 07:30:38 51°13.664 2°55.959 13.9881 0.018044 0.093519 0.392394
2011-02-23 07:30:43 51°13.663 2°55.959 13.9952 0.018044 0.093519 0.392394
2011-02-23 07:30:48 51°13.663 2°55.959 13.9962 0.018044 0.093519 0.392394
2011-02-23 07:30:53 51°13.663 2°55.959 13.9924 0.018044 0.09352 0.35757
2011-02-23 07:30:57 51°13.663 2°55.959 13.9905 0.018044 0.093522 0.35757
2011-02-23 07:31:03 51°13.663 2°55.959 13.9938 0.018044 0.093523 0.35757
2011-02-23 07:31:08 51°13.663 2°55.96 14.0029 0.018044 0.093525 0.35757
2011-02-23 07:31:13 51°13.663 2°55.96 13.9971 0.018044 0.093525 0.35757
2011-02-23 07:31:18 51°13.663 2°55.96 13.9926 0.018044 0.093526 0.392394
2011-02-23 07:31:23 51°13.663 2°55.96 13.995 0.018044 0.093526 0.392394
2011-02-23 07:31:28 51°13.662 2°55.96 13.995 0.018044 0.093528 0.35757
2011-02-23 07:31:33 51°13.662 2°55.96 13.9987 0.018044 0.093529 0.35757
2011-02-23 07:31:38 51°13.663 2°55.96 13.9989 0.018044 0.093533 0.35757
2011-02-23 07:31:43 51°13.663 2°55.959 14.0008 0.018044 0.093533 0.35757
2011-02-23 07:31:48 51°13.663 2°55.959 13.9984 0.018044 0.093532 0.392394
2011-02-23 07:31:53 51°13.663 2°55.96 14.0043 0.018044 0.093534 0.35757
2011-02-23 07:31:58 51°13.663 2°55.96 14.0077 0.018044 0.093535 0.35757
2011-02-23 07:32:03 51°13.663 2°55.96 14.0112 0.018044 0.093535 0.392394
2011-02-23 07:32:08 51°13.663 2°55.96 14.0088 0.018044 0.093538 0.392394
2011-02-23 07:32:13 51°13.663 2°55.96 14.0059 0.018044 0.093539 0.35757
2011-02-23 07:32:18 51°13.663 2°55.96 14.0079 0.018044 0.093539 0.35757
2011-02-23 07:32:23 51°13.663 2°55.96 14.0111 0.018044 0.093539 0.392394
2011-02-23 07:32:28 51°13.663 2°55.959 14.0132 0.018044 0.09354 0.392394
2011-02-23 07:32:33 51°13.663 2°55.959 14.0162 0.018044 0.093543 0.35757
2011-02-23 07:32:38 51°13.663 2°55.959 14.02 0.018044 0.093545 0.35757
2011-02-23 07:32:43 51°13.663 2°55.959 14.0233 0.018044 0.093545 0.35757
2011-02-23 07:32:48 51°13.663 2°55.959 14.025 0.018044 0.093545 0.35757
2011-02-23 07:32:53 51°13.664 2°55.959 14.0187 0.018044 0.093546 0.35757
2011-02-23 07:32:58 51°13.664 2°55.959 14.0156 0.018044 0.093547 0.392394
2011-02-23 07:33:03 51°13.664 2°55.959 14.0159 0.018044 0.093547 0.35757
2011-02-23 07:33:08 51°13.664 2°55.959 14.0164 0.018044 0.09355 0.35757
2011-02-23 07:33:13 51°13.664 2°55.959 14.0152 0.018044 0.09355 0.35757
2011-02-23 07:33:18 51°13.664 2°55.959 14.0144 0.018044 0.093551 0.35757
2011-02-23 07:33:23 51°13.664 2°55.959 14.0085 0.018044 0.093552 0.392394
2011-02-23 07:33:28 51°13.664 2°55.959 14.006 0.018044 0.093553 0.392394
2011-02-23 07:33:33 51°13.664 2°55.959 14.0034 0.018044 0.093556 0.427218
2011-02-23 07:33:38 51°13.664 2°55.959 14.0024 0.018044 0.093556 0.35757
2011-02-23 07:33:43 51°13.664 2°55.959 14.0041 0.018044 0.093556 0.35757
2011-02-23 07:33:47 51°13.664 2°55.959 14.0046 0.018044 0.093556 0.35757
2011-02-23 07:33:53 51°13.664 2°55.959 14.0059 0.018044 0.093558 0.35757
2011-02-23 07:33:58 51°13.664 2°55.959 14.0054 0.018044 0.09356 0.392394
2011-02-23 07:34:03 51°13.664 2°55.959 14.0092 0.018044 0.093562 0.35757
2011-02-23 07:34:08 51°13.664 2°55.959 14.0109 0.018044 0.093563 0.35757
2011-02-23 07:34:13 51°13.664 2°55.959 14.0116 0.018044 0.093563 0.35757
2011-02-23 07:34:18 51°13.664 2°55.959 14.0135 0.018044 0.093563 0.35757
2011-02-23 07:34:23 51°13.664 2°55.959 14.013 0.018044 0.093564 0.35757
2011-02-23 07:34:28 51°13.664 2°55.959 14.0133 0.018044 0.093566 0.35757
2011-02-23 07:34:33 51°13.664 2°55.959 14.0112 0.018044 0.093568 0.35757
2011-02-23 07:34:38 51°13.664 2°55.959 14.0154 0.018044 0.093569 0.392394
2011-02-23 07:34:43 51°13.664 2°55.959 14.0172 0.018044 0.093569 0.392394
2011-02-23 07:34:48 51°13.664 2°55.959 14.0144 0.018044 0.093572 0.392394
2011-02-23 07:34:53 51°13.664 2°55.959 14.0193 0.018044 0.093573 0.392394
2011-02-23 07:34:57 51°13.664 2°55.959 14.0185 0.018044 0.093572 0.35757
2011-02-23 07:35:03 51°13.664 2°55.959 14.0146 0.018044 0.093574 0.392394
2011-02-23 07:35:08 51°13.664 2°55.959 14.0152 0.018044 0.093576 0.35757
2011-02-23 07:35:13 51°13.664 2°55.959 14.0171 0.018044 0.093576 0.35757
2011-02-23 07:35:18 51°13.664 2°55.959 14.017 0.018044 0.093578 0.35757
2011-02-23 07:35:23 51°13.664 2°55.959 14.0182 0.018044 0.093578 0.392394
2011-02-23 07:35:28 51°13.664 2°55.959 14.018 0.018044 0.09358 0.35757
2011-02-23 07:35:32 51°13.664 2°55.959 14.0161 0.018044 0.09358 0.35757
2011-02-23 07:35:38 51°13.664 2°55.959 14.0161 0.018044 0.093582 0.35757
2011-02-23 07:35:43 51°13.664 2°55.959 14.0146 0.018044 0.093584 0.35757
2011-02-23 07:35:48 51°13.664 2°55.959 14.0107 0.018044 0.093584 0.35757
2011-02-23 07:35:53 51°13.664 2°55.959 14.0079 0.018044 0.093585 0.35757
2011-02-23 07:35:58 51°13.664 2°55.959 14.0088 0.018044 0.093587 0.35757
2011-02-23 07:36:03 51°13.665 2°55.959 14.0084 0.018044 0.093587 0.322746
2011-02-23 07:36:08 51°13.665 2°55.959 14.0101 0.018044 0.09359 0.35757
2011-02-23 07:36:13 51°13.665 2°55.959 14.0154 0.018044 0.09359 0.35757
2011-02-23 07:36:18 51°13.665 2°55.959 14.0178 0.018044 0.09359 0.35757
2011-02-23 07:36:23 51°13.665 2°55.959 14.0185 0.01794 0.093074 0.35757
2011-02-23 07:36:28 51°13.665 2°55.959 14.018 0.018044 0.093592 0.35757
2011-02-23 07:36:33 51°13.665 2°55.959 14.0171 0.01794 0.093077 0.392394
2011-02-23 07:36:38 51°13.664 2°55.959 14.0163 0.018044 0.093596 0.392394
2011-02-23 07:36:43 51°13.664 2°55.959 14.0174 0.018044 0.093596 0.392394
2011-02-23 07:36:48 51°13.665 2°55.959 14.0157 0.018044 0.093597 0.35757
2011-02-23 07:36:53 51°13.665 2°55.959 14.015 0.018044 0.093598 0.35757
2011-02-23 07:36:57 51°13.665 2°55.959 14.0161 0.018044 0.0936 0.35757
2011-02-23 07:37:02 51°13.664 2°55.959 14.0213 0.01794 0.093083 0.35757
2011-02-23 07:37:07 51°13.665 2°55.959 14.0244 0.018044 0.093603 0.35757
2011-02-23 07:37:13 51°13.664 2°55.959 14.0293 0.018044 0.093604 0.322746
2011-02-23 07:37:17 51°13.665 2°55.959 14.0306 0.018044 0.093604 0.322746
2011-02-23 07:37:22 51°13.665 2°55.959 14.0313 0.018044 0.093606 0.35757
2011-02-23 07:37:27 51°13.665 2°55.96 14.0287 0.018044 0.093606 0.35757
2011-02-23 07:37:32 51°13.665 2°55.96 14.0356 0.018044 0.093609 0.35757
2011-02-23 07:37:38 51°13.665 2°55.96 14.0411 0.018044 0.09361 0.35757
2011-02-23 07:37:43 51°13.665 2°55.96 14.0426 0.018044 0.09361 0.35757
2011-02-23 07:37:48 51°13.665 2°55.96 14.0391 0.018044 0.093611 0.392394
2011-02-23 07:37:53 51°13.664 2°55.96 14.0357 0.018044 0.093613 0.35757
2011-02-23 07:37:58 51°13.664 2°55.96 14.0334 0.018044 0.093615 0.35757
2011-02-23 07:38:03 51°13.664 2°55.96 14.0299 0.018044 0.093615 0.35757
2011-02-23 07:38:07 51°13.664 2°55.96 14.0302 0.018044 0.093617 0.322746
2011-02-23 07:38:12 51°13.664 2°55.96 14.0246 0.018044 0.093617 0.322746
2011-02-23 07:38:18 51°13.663 2°55.96 14.0221 0.018044 0.093619 0.35757
2011-02-23 07:38:23 51°13.663 2°55.96 14.0258 0.018044 0.09362 0.392394
2011-02-23 07:38:28 51°13.663 2°55.96 14.0263 0.01794 0.093103 0.35757
2011-02-23 07:38:32 51°13.663 2°55.96 14.0271 0.018044 0.093622 0.392394
2011-02-23 07:38:37 51°13.663 2°55.96 14.029 0.018044 0.093625 0.35757
2011-02-23 07:38:43 51°13.663 2°55.961 14.032 0.018044 0.093625 0.35757
2011-02-23 07:38:48 51°13.663 2°55.96 14.0331 0.018044 0.093627 0.35757
2011-02-23 07:38:53 51°13.663 2°55.96 14.0367 0.018044 0.093628 0.35757
2011-02-23 07:38:58 51°13.663 2°55.96 14.037 0.01794 0.093109 0.35757
2011-02-23 07:39:03 51°13.663 2°55.961 14.0361 0.01794 0.09311 0.35757
2011-02-23 07:39:07 51°13.663 2°55.961 14.0282 0.01794 0.093113 0.35757
2011-02-23 07:39:13 51°13.663 2°55.96 14.028 0.01794 0.093113 0.35757
2011-02-23 07:39:18 51°13.663 2°55.96 14.0285 0.01794 0.093114 0.35757
2011-02-23 07:39:22 51°13.663 2°55.96 14.0296 0.01794 0.093116 0.392394
2011-02-23 07:39:27 51°13.663 2°55.96 14.0294 0.01794 0.093117 0.35757
2011-02-23 07:39:32 51°13.663 2°55.96 14.0296 0.018044 0.093638 0.392394
2011-02-23 07:39:38 51°13.664 2°55.96 14.0325 0.01794 0.09312 0.35757
2011-02-23 07:39:43 51°13.664 2°55.96 14.0336 0.01794 0.09312 0.35757
2011-02-23 07:39:48 51°13.664 2°55.96 14.0353 0.018044 0.09364 0.35757
2011-02-23 07:39:53 51°13.664 2°55.96 14.0343 0.01794 0.093125 0.392394
2011-02-23 07:39:58 51°13.663 2°55.96 14.0328 0.01794 0.093123 0.35757
2011-02-23 07:40:03 51°13.663 2°55.96 14.0282 0.018044 0.093645 0.35757
2011-02-23 07:40:08 51°13.663 2°55.96 14.0253 0.01794 0.093127 0.35757
2011-02-23 07:40:13 51°13.663 2°55.96 14.0293 0.01794 0.093127 0.35757
2011-02-23 07:40:17 51°13.664 2°55.96 14.0225 0.01794 0.093128 0.392394
2011-02-23 07:40:23 51°13.664 2°55.96 14.0158 0.018044 0.093649 0.35757
2011-02-23 07:40:28 51°13.664 2°55.96 14.014 0.01794 0.093132 0.35757
2011-02-23 07:40:32 51°13.664 2°55.96 14.0179 0.01794 0.093133 0.392394
2011-02-23 07:40:37 51°13.664 2°55.96 14.0159 0.01794 0.093135 0.35757
2011-02-23 07:40:43 51°13.664 2°55.96 14.0166 0.01794 0.093135 0.35757
2011-02-23 07:40:48 51°13.664 2°55.96 14.0235 0.01794 0.093135 0.392394
2011-02-23 07:40:52 51°13.664 2°55.961 14.0182 0.01794 0.093138 0.35757
2011-02-23 07:40:58 51°13.664 2°55.961 14.0276 0.01794 0.093139 0.35757
2011-02-23 07:41:03 51°13.664 2°55.961 14.0272 0.01794 0.093141 0.392394
2011-02-23 07:41:08 51°13.664 2°55.961 14.0339 0.01794 0.093141 0.35757
2011-02-23 07:41:12 51°13.664 2°55.961 14.0313 0.01794 0.093141 0.35757
2011-02-23 07:41:17 51°13.664 2°55.961 14.0334 0.01794 0.093144 0.35757
2011-02-23 07:41:23 51°13.664 2°55.961 14.0334 0.01794 0.093145 0.35757
2011-02-23 07:41:28 51°13.664 2°55.961 14.0389 0.01794 0.093146 0.35757
2011-02-23 07:41:33 51°13.664 2°55.961 14.0337 0.01794 0.093148 0.35757
2011-02-23 07:41:38 51°13.664 2°55.961 14.039 0.01794 0.093151 0.35757
2011-02-23 07:41:43 51°13.664 2°55.961 14.0446 0.01794 0.093151 0.35757
2011-02-23 07:41:48 51°13.664 2°55.961 14.0477 0.01794 0.093152 0.392394
2011-02-23 07:41:53 51°13.664 2°55.961 14.0495 0.01794 0.093153 0.35757
2011-02-23 07:41:58 51°13.663 2°55.961 14.0522 0.01794 0.093154 0.35757
2011-02-23 07:42:03 51°13.663 2°55.961 14.0535 0.01794 0.093157 0.35757
2011-02-23 07:42:08 51°13.664 2°55.961 14.0508 0.01794 0.093158 0.35757
2011-02-23 07:42:13 51°13.664 2°55.961 14.049 0.01794 0.093158 0.35757
2011-02-23 07:42:18 51°13.663 2°55.961 14.0501 0.01794 0.093159 0.35757
2011-02-23 07:42:23 51°13.664 2°55.961 14.0492 0.01794 0.093162 0.35757
2011-02-23 07:42:28 51°13.664 2°55.961 14.0572 0.01794 0.093164 0.392394
2011-02-23 07:42:33 51°13.664 2°55.961 14.0502 0.01794 0.093164 0.35757
2011-02-23 07:42:38 51°13.664 2°55.961 14.0535 0.01794 0.093166 0.35757
2011-02-23 07:42:43 51°13.664 2°55.961 14.0545 0.01794 0.093166 0.35757
2011-02-23 07:42:48 51°13.664 2°55.961 14.0546 0.01794 0.093168 0.35757
2011-02-23 07:42:53 51°13.664 2°55.961 14.0555 0.01794 0.09317 0.392394
2011-02-23 07:42:58 51°13.664 2°55.961 14.0574 0.01794 0.093171 0.35757
2011-02-23 07:43:03 51°13.664 2°55.961 14.0603 0.01794 0.093172 0.392394
2011-02-23 07:43:08 51°13.664 2°55.961 14.0671 0.01794 0.093175 0.35757
2011-02-23 07:43:13 51°13.664 2°55.961 14.0645 0.01794 0.093175 0.35757
2011-02-23 07:43:18 51°13.664 2°55.961 14.0614 0.01794 0.093176 0.35757
2011-02-23 07:43:23 51°13.664 2°55.961 14.0632 0.01794 0.093177 0.35757
2011-02-23 07:43:28 51°13.664 2°55.961 14.0642 0.01794 0.09318 0.392394
2011-02-23 07:43:33 51°13.664 2°55.961 14.065 0.01794 0.093181 0.35757
2011-02-23 07:43:38 51°13.664 2°55.962 14.0652 0.01794 0.093182 0.392394
2011-02-23 07:43:43 51°13.664 2°55.961 14.0673 0.01794 0.093182 0.392394
2011-02-23 07:43:48 51°13.664 2°55.961 14.0649 0.01794 0.093183 0.35757
2011-02-23 07:43:53 51°13.663 2°55.961 14.0665 0.01794 0.093186 0.392394
2011-02-23 07:43:58 51°13.663 2°55.961 14.0627 0.01794 0.093187 0.35757
2011-02-23 07:44:03 51°13.663 2°55.961 14.0629 0.01794 0.093188 0.392394
2011-02-23 07:44:08 51°13.663 2°55.961 14.0576 0.01794 0.093189 0.392394
2011-02-23 07:44:13 51°13.663 2°55.961 14.0625 0.01794 0.093189 0.392394
2011-02-23 07:44:17 51°13.663 2°55.961 14.0609 0.01794 0.09319 0.392394
2011-02-23 07:44:22 51°13.663 2°55.961 14.0623 0.01794 0.093192 0.392394
2011-02-23 07:44:27 51°13.663 2°55.961 14.0611 0.01794 0.093194 0.392394
2011-02-23 07:44:32 51°13.663 2°55.962 14.0614 0.01794 0.093195 0.392394
2011-02-23 07:44:37 51°13.664 2°55.962 14.0621 0.01794 0.093196 0.35757
2011-02-23 07:44:42 51°13.664 2°55.962 14.0666 0.01794 0.093196 0.35757
2011-02-23 07:44:47 51°13.664 2°55.962 14.0683 0.01794 0.093199 0.392394
2011-02-23 07:44:52 51°13.664 2°55.962 14.0709 0.01794 0.093199 0.35757
2011-02-23 07:44:58 51°13.664 2°55.961 14.0662 0.01794 0.093201 0.35757
2011-02-23 07:45:03 51°13.663 2°55.961 14.0633 0.01794 0.093202 0.35757
2011-02-23 07:45:07 51°13.663 2°55.961 14.069 0.01794 0.093204 0.392394
2011-02-23 07:45:12 51°13.663 2°55.961 14.066 0.01794 0.093204 0.392394
2011-02-23 07:45:17 51°13.663 2°55.961 14.0698 0.01794 0.093205 0.35757
2011-02-23 07:45:23 51°13.663 2°55.962 14.0667 0.01794 0.093206 0.35757
2011-02-23 07:45:28 51°13.663 2°55.962 14.0639 0.01794 0.093207 0.35757
2011-02-23 07:45:33 51°13.664 2°55.962 14.0627 0.01794 0.093209 0.35757
2011-02-23 07:45:38 51°13.664 2°55.962 14.0643 0.01794 0.093211 0.35757
2011-02-23 07:45:43 51°13.664 2°55.963 14.0648 0.01794 0.093211 0.35757
2011-02-23 07:45:48 51°13.665 2°55.963 14.0692 0.01794 0.093212 0.35757
2011-02-23 07:45:53 51°13.666 2°55.964 14.0675 0.01794 0.093212 0.35757
2011-02-23 07:45:58 51°13.666 2°55.964 14.0694 0.01794 0.093215 0.35757
2011-02-23 07:46:03 51°13.666 2°55.964 14.0705 0.01794 0.093217 0.392394
2011-02-23 07:46:08 51°13.666 2°55.964 14.071 0.01794 0.093218 0.35757
2011-02-23 07:46:13 51°13.666 2°55.964 14.071 0.01794 0.093219 0.35757
2011-02-23 07:46:18 51°13.665 2°55.964 14.073 0.01794 0.093219 0.35757
2011-02-23 07:46:23 51°13.665 2°55.964 14.0727 0.01794 0.093221 0.35757
2011-02-23 07:46:28 51°13.665 2°55.963 14.0729 0.01794 0.093222 0.35757
2011-02-23 07:46:33 51°13.665 2°55.963 14.0731 0.01794 0.093223 0.35757
2011-02-23 07:46:38 51°13.665 2°55.963 14.0718 0.01794 0.093224 0.35757
2011-02-23 07:46:43 51°13.665 2°55.962 14.0711 0.01794 0.093224 0.35757
2011-02-23 07:46:48 51°13.664 2°55.962 14.073 0.01794 0.093225 0.35757
2011-02-23 07:46:53 51°13.664 2°55.962 14.072 0.01794 0.093225 0.35757
2011-02-23 07:46:58 51°13.664 2°55.962 14.0722 0.01794 0.093228 0.35757
2011-02-23 07:47:03 51°13.664 2°55.962 14.0711 0.01794 0.093229 0.35757
2011-02-23 07:47:08 51°13.664 2°55.962 14.0707 0.01794 0.09323 0.35757
2011-02-23 07:47:13 51°13.664 2°55.962 14.0684 0.01794 0.09323 0.35757
2011-02-23 07:47:18 51°13.664 2°55.962 14.069 0.01794 0.093231 0.392394
2011-02-23 07:47:23 51°13.664 2°55.962 14.0674 0.01794 0.093233 0.35757
2011-02-23 07:47:28 51°13.664 2°55.962 14.0672 0.01794 0.093234 0.392394
2011-02-23 07:47:33 51°13.664 2°55.962 14.058 0.01794 0.093235 0.35757
2011-02-23 07:47:38 51°13.664 2°55.962 14.0497 0.01794 0.093237 0.35757
2011-02-23 07:47:43 51°13.664 2°55.962 14.047 0.01794 0.093237 0.35757
2011-02-23 07:47:48 51°13.664 2°55.962 14.0443 0.01794 0.093237 0.35757
2011-02-23 07:47:53 51°13.663 2°55.962 14.0449 0.01794 0.093239 0.392394
2011-02-23 07:47:58 51°13.663 2°55.962 14.0399 0.01794 0.09324 0.322746
2011-02-23 07:48:03 51°13.663 2°55.962 14.0394 0.01794 0.093242 0.35757
2011-02-23 07:48:08 51°13.663 2°55.962 14.0378 0.01794 0.093243 0.322746
2011-02-23 07:48:13 51°13.663 2°55.962 14.0407 0.01794 0.093243 0.322746
2011-02-23 07:48:18 51°13.662 2°55.962 14.0359 0.01794 0.093245 0.35757
2011-02-23 07:48:23 51°13.663 2°55.962 14.0372 0.01794 0.093246 0.35757
2011-02-23 07:48:28 51°13.663 2°55.962 14.0412 0.01794 0.093248 0.35757
2011-02-23 07:48:33 51°13.663 2°55.962 14.0444 0.01794 0.093247 0.322746
2011-02-23 07:48:38 51°13.663 2°55.962 14.0446 0.01794 0.093248 0.35757
2011-02-23 07:48:43 51°13.663 2°55.961 14.05 0.01794 0.093248 0.35757
2011-02-23 07:48:48 51°13.663 2°55.961 14.0507 0.01794 0.093251 0.35757
2011-02-23 07:48:52 51°13.662 2°55.961 14.0541 0.01794 0.093252 0.35757
2011-02-23 07:48:57 51°13.662 2°55.961 14.0594 0.01794 0.093254 0.35757
2011-02-23 07:49:02 51°13.663 2°55.961 14.0629 0.01794 0.093254 0.35757
2011-02-23 07:49:07 51°13.663 2°55.961 14.0587 0.01794 0.093257 0.35757
2011-02-23 07:49:12 51°13.662 2°55.961 14.0689 0.01794 0.093257 0.35757
2011-02-23 07:49:18 51°13.662 2°55.961 14.0718 0.01794 0.093257 0.35757
2011-02-23 07:49:22 51°13.662 2°55.961 14.0728 0.01794 0.093258 0.35757
2011-02-23 07:49:27 51°13.662 2°55.961 14.081 0.01794 0.093261 0.35757
2011-02-23 07:49:32 51°13.662 2°55.961 14.0805 0.01794 0.093261 0.35757
2011-02-23 07:49:37 51°13.662 2°55.961 14.0792 0.01794 0.093261 0.35757
2011-02-23 07:49:43 51°13.662 2°55.961 14.0839 0.01794 0.093261 0.35757
2011-02-23 07:49:47 51°13.662 2°55.961 14.0867 0.01794 0.093264 0.392394
2011-02-23 07:49:52 51°13.661 2°55.961 14.095 0.01794 0.093265 0.392394
2011-02-23 07:49:58 51°13.661 2°55.961 14.0974 0.01794 0.093267 0.392394
2011-02-23 07:50:03 51°13.661 2°55.961 14.0998 0.01794 0.093269 0.35757
2011-02-23 07:50:08 51°13.661 2°55.961 14.0984 0.01794 0.093269 0.392394
2011-02-23 07:50:13 51°13.662 2°55.962 14.0944 0.01794 0.093269 0.392394
2011-02-23 07:50:18 51°13.662 2°55.962 14.094 0.01794 0.09327 0.35757
2011-02-23 07:50:23 51°13.661 2°55.962 14.0942 0.01794 0.093272 0.35757
2011-02-23 07:50:28 51°13.662 2°55.961 14.0967 0.01794 0.093273 0.35757
2011-02-23 07:50:33 51°13.662 2°55.961 14.0985 0.01794 0.093275 0.35757
2011-02-23 07:50:38 51°13.662 2°55.961 14.0987 0.01794 0.093277 0.35757
2011-02-23 07:50:43 51°13.662 2°55.961 14.1031 0.01794 0.093277 0.35757
2011-02-23 07:50:48 51°13.662 2°55.961 14.1013 0.01794 0.093278 0.35757
2011-02-23 07:50:53 51°13.662 2°55.961 14.097 0.01794 0.093281 0.35757
2011-02-23 07:50:58 51°13.662 2°55.961 14.1001 0.01794 0.093281 0.35757
2011-02-23 07:51:03 51°13.661 2°55.961 14.0996 0.01794 0.093282 0.35757
2011-02-23 07:51:08 51°13.662 2°55.961 14.1022 0.01794 0.093283 0.35757
2011-02-23 07:51:13 51°13.662 2°55.961 14.103 0.01794 0.093283 0.35757
2011-02-23 07:51:18 51°13.662 2°55.961 14.0997 0.01794 0.093284 0.35757
2011-02-23 07:51:23 51°13.662 2°55.961 14.1024 0.01794 0.093287 0.392394
2011-02-23 07:51:27 51°13.662 2°55.961 14.1039 0.01794 0.093288 0.35757
2011-02-23 07:51:33 51°13.662 2°55.961 14.1042 0.01794 0.093289 0.392394
2011-02-23 07:51:38 51°13.662 2°55.961 14.1053 0.01794 0.09329 0.392394
2011-02-23 07:51:43 51°13.661 2°55.961 14.1026 0.01794 0.09329 0.392394
2011-02-23 07:51:48 51°13.661 2°55.961 14.1031 0.01794 0.093292 0.392394
2011-02-23 07:51:53 51°13.661 2°55.961 14.1024 0.01794 0.093294 0.392394
2011-02-23 07:51:58 51°13.661 2°55.961 14.103 0.01794 0.093295 0.392394
2011-02-23 07:52:03 51°13.661 2°55.961 14.1047 0.01794 0.093296 0.392394
2011-02-23 07:52:08 51°13.662 2°55.961 14.1009 0.01794 0.093298 0.392394
2011-02-23 07:52:13 51°13.662 2°55.961 14.1055 0.01794 0.093298 0.392394
2011-02-23 07:52:18 51°13.662 2°55.96 14.1131 0.01794 0.093299 0.35757
2011-02-23 07:52:23 51°13.662 2°55.96 14.1208 0.01794 0.093301 0.35757
2011-02-23 07:52:28 51°13.662 2°55.96 14.1229 0.01794 0.093301 0.392394
2011-02-23 07:52:33 51°13.661 2°55.96 14.1229 0.01794 0.093304 0.35757
2011-02-23 07:52:37 51°13.661 2°55.96 14.1226 0.01794 0.093305 0.35757
2011-02-23 07:52:42 51°13.662 2°55.961 14.123 0.01794 0.093305 0.35757
2011-02-23 07:52:47 51°13.662 2°55.96 14.1188 0.01794 0.093307 0.35757
2011-02-23 07:52:52 51°13.661 2°55.96 14.12 0.01794 0.093308 0.392394
2011-02-23 07:52:57 51°13.661 2°55.96 14.1253 0.01794 0.093312 0.35757
2011-02-23 07:53:02 51°13.661 2°55.96 14.1231 0.01794 0.093312 0.35757
2011-02-23 07:53:07 51°13.662 2°55.961 14.1237 0.01794 0.093314 0.392394
2011-02-23 07:53:12 51°13.661 2°55.96 14.1294 0.01794 0.093314 0.392394
2011-02-23 07:53:17 51°13.661 2°55.96 14.1247 0.01794 0.093314 0.392394
2011-02-23 07:53:23 51°13.661 2°55.96 14.1252 0.01794 0.093316 0.392394
2011-02-23 07:53:27 51°13.661 2°55.961 14.1253 0.01794 0.093318 0.392394
2011-02-23 07:53:33 51°13.661 2°55.961 14.1233 0.01794 0.093319 0.35757
2011-02-23 07:53:37 51°13.661 2°55.961 14.1201 0.01794 0.09332 0.35757
2011-02-23 07:53:43 51°13.661 2°55.961 14.1163 0.01794 0.09332 0.35757
2011-02-23 07:53:47 51°13.661 2°55.961 14.1143 0.01794 0.093323 0.35757
2011-02-23 07:53:53 51°13.661 2°55.961 14.1125 0.01794 0.093324 0.35757
2011-02-23 07:53:58 51°13.661 2°55.961 14.1103 0.01794 0.093325 0.35757
2011-02-23 07:54:03 51°13.661 2°55.961 14.1082 0.01794 0.093326 0.35757
2011-02-23 07:54:08 51°13.661 2°55.961 14.1036 0.01794 0.093329 0.35757
2011-02-23 07:54:13 51°13.661 2°55.961 14.1027 0.01794 0.093329 0.35757
2011-02-23 07:54:18 51°13.661 2°55.961 14.1026 0.01794 0.09333 0.392394
2011-02-23 07:54:23 51°13.662 2°55.961 14.1017 0.01794 0.093331 0.35757
2011-02-23 07:54:28 51°13.662 2°55.961 14.1033 0.01794 0.093332 0.392394
2011-02-23 07:54:33 51°13.662 2°55.961 14.1042 0.01794 0.093335 0.392394
2011-02-23 07:54:38 51°13.662 2°55.961 14.1039 0.01794 0.093336 0.392394
2011-02-23 07:54:43 51°13.662 2°55.961 14.1037 0.01794 0.093336 0.392394
2011-02-23 07:54:48 51°13.662 2°55.961 14.1004 0.01794 0.093337 0.392394
2011-02-23 07:54:53 51°13.662 2°55.961 14.1003 0.01794 0.093339 0.35757
2011-02-23 07:54:58 51°13.662 2°55.961 14.0997 0.01794 0.09334 0.35757
2011-02-23 07:55:03 51°13.662 2°55.961 14.0986 0.01794 0.093342 0.392394
2011-02-23 07:55:08 51°13.661 2°55.961 14.0898 0.01794 0.093343 0.35757
2011-02-23 07:55:13 51°13.662 2°55.961 14.0786 0.01794 0.093343 0.35757
2011-02-23 07:55:18 51°13.662 2°55.961 14.0594 0.01794 0.093345 0.392394
2011-02-23 07:55:23 51°13.662 2°55.961 14.0578 0.01794 0.093346 0.392394
2011-02-23 07:55:28 51°13.662 2°55.961 14.0504 0.01794 0.093348 0.35757
2011-02-23 07:55:33 51°13.662 2°55.961 14.0381 0.01794 0.093349 0.35757
2011-02-23 07:55:38 51°13.662 2°55.961 14.0385 0.01794 0.093351 0.392394
2011-02-23 07:55:43 51°13.662 2°55.961 14.0835 0.01794 0.093351 0.392394
2011-02-23 07:55:48 51°13.662 2°55.961 14.0817 0.01794 0.093353 0.392394
2011-02-23 07:55:53 51°13.662 2°55.961 14.0871 0.01794 0.093354 0.35757
2011-02-23 07:55:58 51°13.661 2°55.961 14.0916 0.01794 0.093357 0.392394
2011-02-23 07:56:03 51°13.661 2°55.961 14.0957 0.01794 0.093358 0.392394
2011-02-23 07:56:08 51°13.661 2°55.961 14.0969 0.01794 0.093358 0.392394
2011-02-23 07:56:13 51°13.661 2°55.961 14.1002 0.01794 0.093358 0.392394
2011-02-23 07:56:18 51°13.661 2°55.961 14.1033 0.01794 0.09336 0.35757
2011-02-23 07:56:23 51°13.661 2°55.961 14.1071 0.01794 0.093361 0.392394
2011-02-23 07:56:28 51°13.661 2°55.961 14.1104 0.01794 0.093363 0.35757
2011-02-23 07:56:33 51°13.661 2°55.961 14.111 0.01794 0.093365 0.392394
2011-02-23 07:56:38 51°13.661 2°55.961 14.1115 0.01794 0.093366 0.392394
2011-02-23 07:56:43 51°13.661 2°55.961 14.1147 0.01794 0.093366 0.392394
2011-02-23 07:56:48 51°13.661 2°55.961 14.1099 0.01794 0.093369 0.35757
2011-02-23 07:56:53 51°13.661 2°55.961 14.108 0.01794 0.09337 0.392394
2011-02-23 07:56:58 51°13.66 2°55.96 14.0833 0.01794 0.093371 0.35757
2011-02-23 07:57:03 51°13.66 2°55.96 14.0027 0.01794 0.093374 0.392394
2011-02-23 07:57:08 51°13.66 2°55.96 14.024 0.01794 0.093375 0.35757
2011-02-23 07:57:13 51°13.66 2°55.958 13.9503 0.01794 0.093375 0.35757
2011-02-23 07:57:18 51°13.661 2°55.956 13.9562 0.01794 0.093377 0.392394
2011-02-23 07:57:23 51°13.662 2°55.954 13.9244 0.01794 0.093378 0.35757
2011-02-23 07:57:28 51°13.663 2°55.95 13.9745 0.01794 0.09338 0.35757
2011-02-23 07:57:33 51°13.664 2°55.945 14.0183 0.01794 0.093381 0.392394
2011-02-23 07:57:38 51°13.666 2°55.94 14.0593 0.01794 0.093383 0.392394
2011-02-23 07:57:43 51°13.667 2°55.935 14.0985 0.01794 0.093383 0.392394
2011-02-23 07:57:48 51°13.669 2°55.93 14.0655 0.01794 0.093384 0.35757
2011-02-23 07:57:53 51°13.671 2°55.924 14.0622 0.01794 0.093387 0.35757
2011-02-23 07:57:58 51°13.673 2°55.918 14.0607 0.01794 0.093388 0.35757
2011-02-23 07:58:03 51°13.675 2°55.911 14.0728 0.01794 0.093389 0.392394
2011-02-23 07:58:08 51°13.677 2°55.905 14.0565 0.01794 0.09339 0.392394
2011-02-23 07:58:12 51°13.678 2°55.899 14.0587 0.01794 0.09339 0.392394
2011-02-23 07:58:17 51°13.68 2°55.891 14.0433 0.01794 0.093393 0.392394
2011-02-23 07:58:23 51°13.683 2°55.882 14.0498 0.01794 0.093394 0.392394
2011-02-23 07:58:28 51°13.684 2°55.873 14.0536 0.01794 0.093395 0.392394
2011-02-23 07:58:32 51°13.685 2°55.866 14.129 0.01794 0.093398 0.392394
2011-02-23 07:58:37 51°13.687 2°55.857 14.0749 0.01794 0.093398 0.392394
2011-02-23 07:58:43 51°13.689 2°55.847 14.0759 0.01794 0.093398 0.392394
2011-02-23 07:58:48 51°13.69 2°55.837 14.0656 0.01794 0.093399 0.392394
2011-02-23 07:58:52 51°13.691 2°55.83 14.076 0.01794 0.093401 0.35757
2011-02-23 07:58:57 51°13.692 2°55.82 14.0806 0.017836 0.092883 0.35757
2011-02-23 07:59:03 51°13.692 2°55.809 14.0811 0.017836 0.092884 0.392394
2011-02-23 07:59:07 51°13.692 2°55.801 14.0793 0.01794 0.093406 0.35757
2011-02-23 07:59:13 51°13.693 2°55.79 14.0608 0.01794 0.093406 0.35757
2011-02-23 07:59:17 51°13.693 2°55.783 14.0543 0.01794 0.093407 0.392394
2011-02-23 07:59:23 51°13.692 2°55.772 14.0752 0.01794 0.09341 0.392394
2011-02-23 07:59:27 51°13.692 2°55.765 14.072 0.01794 0.09341 0.392394
2011-02-23 07:59:32 51°13.692 2°55.757 14.0857 0.01794 0.093412 0.392394
2011-02-23 07:59:38 51°13.69 2°55.748 14.098 0.01794 0.093413 0.392394
2011-02-23 07:59:43 51°13.69 2°55.741 13.9558 0.01794 0.093413 0.392394
2011-02-23 07:59:48 51°13.689 2°55.736 14.1258 0.01794 0.093415 0.35757
2011-02-23 07:59:52 51°13.689 2°55.734 14.1386 0.01794 0.093415 0.35757
2011-02-23 07:59:57 51°13.69 2°55.733 14.1874 0.017836 0.092895 0.392394
2011-02-23 08:00:03 51°13.692 2°55.734 14.1992 0.01794 0.093417 0.392394
2011-02-23 08:00:07 51°13.693 2°55.735 14.208 0.01794 0.093419 0.392394
2011-02-23 08:00:12 51°13.697 2°55.737 14.2148 0.01794 0.093419 0.392394
2011-02-23 08:00:17 51°13.701 2°55.738 14.2094 0.017836 0.092899 0.496866
2011-02-23 08:00:22 51°13.706 2°55.738 14.1813 0.01794 0.093421 0.601338
2011-02-23 08:00:27 51°13.712 2°55.737 14.1824 0.01794 0.093424 0.566514
2011-02-23 08:00:32 51°13.718 2°55.735 14.1722 0.017836 0.092907 0.496866
2011-02-23 08:00:37 51°13.725 2°55.731 14.1261 0.01794 0.093428 0.496866
2011-02-23 08:00:42 51°13.732 2°55.726 13.9506 0.01794 0.093428 0.496866
2011-02-23 08:00:47 51°13.739 2°55.72 13.9631 0.017836 0.092908 0.427218
2011-02-23 08:00:52 51°13.747 2°55.713 13.8994 0.01794 0.09343 0.392394
2011-02-23 08:00:57 51°13.755 2°55.705 13.8972 0.017836 0.09291 0.392394
2011-02-23 08:01:02 51°13.763 2°55.698 13.907 0.01794 0.093434 0.392394
2011-02-23 08:01:07 51°13.772 2°55.689 13.8693 0.017836 0.092914 0.392394
2011-02-23 08:01:12 51°13.781 2°55.681 13.8595 0.017836 0.092914 0.392394
2011-02-23 08:01:17 51°13.79 2°55.672 13.8303 0.017836 0.092914 0.392394
2011-02-23 08:01:22 51°13.799 2°55.663 13.8435 0.017836 0.092916 0.392394
2011-02-23 08:01:27 51°13.809 2°55.655 13.8355 0.01794 0.093439 0.392394
2011-02-23 08:01:32 51°13.818 2°55.646 13.8373 0.017836 0.09292 0.392394
2011-02-23 08:01:37 51°13.827 2°55.638 13.8124 0.01794 0.093442 0.392394
2011-02-23 08:01:42 51°13.837 2°55.629 13.7905 0.01794 0.093442 0.392394
2011-02-23 08:01:47 51°13.847 2°55.621 13.7768 0.017836 0.092922 0.392394
2011-02-23 08:01:52 51°13.857 2°55.612 13.769 0.017836 0.092923 0.392394
2011-02-23 08:01:57 51°13.867 2°55.605 13.8004 0.01794 0.093447 0.392394
2011-02-23 08:02:02 51°13.877 2°55.597 13.8094 0.01794 0.093447 0.392394
2011-02-23 08:02:07 51°13.887 2°55.589 13.8435 0.017836 0.092928 0.35757
2011-02-23 08:02:12 51°13.898 2°55.581 13.8489 0.017836 0.092928 0.35757
2011-02-23 08:02:17 51°13.908 2°55.573 13.866 0.017836 0.092928 0.392394
2011-02-23 08:02:22 51°13.918 2°55.566 13.8657 0.017836 0.092931 0.392394
2011-02-23 08:02:27 51°13.929 2°55.558 13.8707 0.017836 0.092933 0.392394
2011-02-23 08:02:32 51°13.94 2°55.55 13.8817 0.017836 0.092932 0.392394
2011-02-23 08:02:37 51°13.95 2°55.543 13.8947 0.017836 0.092934 0.392394
2011-02-23 08:02:42 51°13.961 2°55.535 13.8748 0.017836 0.092934 0.392394
2011-02-23 08:02:47 51°13.972 2°55.527 13.8772 0.017836 0.092935 0.392394
2011-02-23 08:02:52 51°13.983 2°55.519 13.8413 0.017836 0.092937 0.35757
2011-02-23 08:02:56 51°13.992 2°55.513 13.8864 0.017836 0.092939 0.392394
2011-02-23 08:03:02 51°14.004 2°55.504 13.8971 0.01794 0.093461 0.392394
2011-02-23 08:03:07 51°14.015 2°55.496 13.8927 0.017836 0.09294 0.392394
2011-02-23 08:03:12 51°14.025 2°55.487 13.9073 0.017836 0.09294 0.392394
2011-02-23 08:03:16 51°14.034 2°55.481 13.9202 0.017836 0.092941 0.35757
2011-02-23 08:03:21 51°14.045 2°55.473 13.931 0.017836 0.092941 0.392394
2011-02-23 08:03:26 51°14.056 2°55.465 13.9257 0.017836 0.092944 0.35757
2011-02-23 08:03:32 51°14.069 2°55.456 14.0036 0.017836 0.092944 0.322746
2011-02-23 08:03:36 51°14.078 2°55.449 14.013 0.017836 0.092946 0.35757
2011-02-23 08:03:41 51°14.089 2°55.439 13.9321 0.017836 0.092946 0.35757
2011-02-23 08:03:46 51°14.1 2°55.43 13.8828 0.017836 0.092947 0.35757
2011-02-23 08:03:52 51°14.115 2°55.42 13.9492 0.017836 0.092949 0.35757
2011-02-23 08:03:57 51°14.126 2°55.411 13.9468 0.017836 0.092949 0.392394
2011-02-23 08:04:02 51°14.139 2°55.402 13.9471 0.017836 0.092949 0.392394
2011-02-23 08:04:07 51°14.151 2°55.392 13.9214 0.017836 0.09295 0.392394
2011-02-23 08:04:12 51°14.163 2°55.383 13.9672 0.017836 0.092951 0.392394
2011-02-23 08:04:17 51°14.175 2°55.373 13.9093 0.017836 0.092951 0.392394
2011-02-23 08:04:22 51°14.187 2°55.363 13.9953 0.017836 0.092952 0.392394
2011-02-23 08:04:27 51°14.199 2°55.353 13.9792 0.017836 0.092953 0.35757
2011-02-23 08:04:32 51°14.211 2°55.342 13.9341 0.017836 0.092955 0.35757
2011-02-23 08:04:37 51°14.224 2°55.331 13.9305 0.017836 0.092956 0.35757
2011-02-23 08:04:42 51°14.237 2°55.319 13.9796 0.017836 0.092956 0.35757
2011-02-23 08:04:46 51°14.247 2°55.31 13.8583 0.017836 0.092957 0.35757
2011-02-23 08:04:52 51°14.262 2°55.295 13.8595 0.017836 0.092958 0.392394
2011-02-23 08:04:56 51°14.272 2°55.286 13.9463 0.017836 0.092958 0.392394
2011-02-23 08:05:01 51°14.285 2°55.274 13.9206 0.017836 0.092959 0.392394
2011-02-23 08:05:06 51°14.298 2°55.261 13.8777 0.017836 0.092961 0.392394
2011-02-23 08:05:11 51°14.312 2°55.248 13.8656 0.017836 0.092961 0.392394
2011-02-23 08:05:16 51°14.325 2°55.236 13.7125 0.017836 0.092961 0.427218
2011-02-23 08:05:20 51°14.335 2°55.225 13.8524 0.017836 0.092963 0.392394
2011-02-23 08:05:25 51°14.349 2°55.212 13.9832 0.017836 0.092962 0.392394
2011-02-23 08:05:30 51°14.362 2°55.199 13.9452 0.017836 0.092963 0.35757
2011-02-23 08:05:35 51°14.375 2°55.185 13.7594 0.017836 0.092966 0.392394
2011-02-23 08:05:40 51°14.389 2°55.17 13.7597 0.017836 0.092966 0.392394
2011-02-23 08:05:44 51°14.399 2°55.159 13.66 0.017836 0.092964 0.427218
2011-02-23 08:05:49 51°14.413 2°55.145 13.8137 0.017836 0.092967 0.392394
2011-02-23 08:05:54 51°14.427 2°55.13 13.6287 0.017836 0.092967 0.392394
2011-02-23 08:05:59 51°14.441 2°55.115 13.8273 0.017836 0.092968 0.392394
2011-02-23 08:06:04 51°14.455 2°55.101 13.8009 0.017836 0.092968 0.392394
2011-02-23 08:06:08 51°14.466 2°55.09 13.9168 0.017836 0.092968 0.392394
2011-02-23 08:06:14 51°14.483 2°55.072 13.7395 0.017836 0.092969 0.35757
2011-02-23 08:06:19 51°14.497 2°55.057 13.7885 0.017836 0.092972 0.427218
2011-02-23 08:06:24 51°14.511 2°55.041 13.884 0.017836 0.092972 0.392394
2011-02-23 08:06:28 51°14.523 2°55.028 13.8865 0.017836 0.092973 0.427218
2011-02-23 08:06:34 51°14.539 2°55.006 13.7079 0.017836 0.092975 0.392394
2011-02-23 08:06:39 51°14.552 2°54.987 13.8072 0.017836 0.092975 0.392394
2011-02-23 08:06:44 51°14.566 2°54.969 13.6067 0.017836 0.092974 0.392394
2011-02-23 08:06:48 51°14.577 2°54.953 13.7569 0.017836 0.092975 0.392394
2011-02-23 08:06:54 51°14.594 2°54.931 13.853 0.017836 0.092975 0.392394
2011-02-23 08:06:59 51°14.609 2°54.912 13.7456 0.017836 0.092979 0.392394
2011-02-23 08:07:04 51°14.623 2°54.894 13.8057 0.017836 0.092979 0.392394
2011-02-23 08:07:08 51°14.634 2°54.879 13.8675 0.017836 0.092979 0.392394
2011-02-23 08:07:14 51°14.652 2°54.857 13.743 0.017836 0.09298 0.35757
2011-02-23 08:07:19 51°14.667 2°54.839 13.7503 0.017836 0.092982 0.462042
2011-02-23 08:07:24 51°14.682 2°54.822 13.7682 0.017836 0.092982 0.35757
2011-02-23 08:07:28 51°14.694 2°54.807 13.7966 0.017836 0.092982 0.392394
2011-02-23 08:07:34 51°14.712 2°54.786 13.7393 0.017836 0.092984 0.392394
2011-02-23 08:07:39 51°14.727 2°54.768 13.7466 0.017836 0.092984 0.392394
2011-02-23 08:07:44 51°14.742 2°54.752 13.7454 0.017836 0.092985 0.392394
2011-02-23 08:07:49 51°14.757 2°54.735 13.8661 0.017836 0.092987 0.392394
2011-02-23 08:07:54 51°14.773 2°54.72 13.7601 0.017836 0.092987 0.392394
2011-02-23 08:07:59 51°14.789 2°54.703 13.7442 0.017836 0.09299 0.392394
2011-02-23 08:08:04 51°14.805 2°54.688 13.8485 0.017836 0.092991 0.427218
2011-02-23 08:08:09 51°14.82 2°54.672 13.8187 0.017836 0.092991 0.427218
2011-02-23 08:08:14 51°14.836 2°54.657 13.7349 0.017836 0.092991 0.392394
2011-02-23 08:08:19 51°14.852 2°54.641 13.7186 0.017836 0.092992 0.392394
2011-02-23 08:08:24 51°14.868 2°54.626 13.8818 0.017836 0.092993 0.392394
2011-02-23 08:08:29 51°14.884 2°54.612 13.739 0.017836 0.092996 0.392394
2011-02-23 08:08:34 51°14.9 2°54.597 13.8784 0.017836 0.092998 0.427218
2011-02-23 08:08:39 51°14.916 2°54.582 13.7597 0.017836 0.092998 0.427218
2011-02-23 08:08:44 51°14.932 2°54.567 13.643 0.017836 0.093 0.427218
2011-02-23 08:08:48 51°14.945 2°54.555 13.7968 0.017836 0.092999 0.427218
2011-02-23 08:08:54 51°14.965 2°54.539 13.9266 0.017836 0.092999 0.392394
2011-02-23 08:08:59 51°14.98 2°54.524 13.8892 0.017836 0.093002 0.392394
2011-02-23 08:09:04 51°14.996 2°54.51 13.8684 0.017836 0.093005 0.35757
2011-02-23 08:09:08 51°15.008 2°54.496 13.9215 0.017836 0.093005 0.35757
2011-02-23 08:09:14 51°15.027 2°54.477 13.8314 0.017836 0.093008 0.35757
2011-02-23 08:09:19 51°15.041 2°54.458 13.8044 0.017836 0.093009 0.35757
2011-02-23 08:09:24 51°15.056 2°54.441 13.7393 0.017836 0.093011 0.392394
2011-02-23 08:09:28 51°15.067 2°54.425 13.6516 0.017836 0.093011 0.392394
2011-02-23 08:09:34 51°15.084 2°54.403 13.7688 0.017836 0.093012 0.392394
2011-02-23 08:09:39 51°15.099 2°54.385 13.7483 0.017836 0.093012 0.392394
2011-02-23 08:09:44 51°15.113 2°54.366 13.6998 0.017836 0.093012 0.392394
2011-02-23 08:09:49 51°15.127 2°54.346 13.8359 0.017836 0.093014 0.392394
2011-02-23 08:09:54 51°15.141 2°54.327 13.839 0.017836 0.093016 0.392394
2011-02-23 08:09:59 51°15.155 2°54.308 13.8304 0.017836 0.093017 0.392394
2011-02-23 08:10:04 51°15.17 2°54.288 13.7304 0.017836 0.09302 0.392394
2011-02-23 08:10:09 51°15.183 2°54.268 13.6943 0.017836 0.09302 0.392394
2011-02-23 08:10:14 51°15.197 2°54.247 13.6389 0.017836 0.09302 0.392394
2011-02-23 08:10:19 51°15.211 2°54.228 13.7036 0.017836 0.09302 0.35757
2011-02-23 08:10:24 51°15.226 2°54.209 13.7325 0.017836 0.093019 0.35757
2011-02-23 08:10:29 51°15.24 2°54.19 13.8014 0.017836 0.093022 0.392394
2011-02-23 08:10:34 51°15.255 2°54.172 13.7951 0.017836 0.093025 0.392394
2011-02-23 08:10:39 51°15.27 2°54.154 13.7925 0.017836 0.093025 0.392394
2011-02-23 08:10:44 51°15.285 2°54.136 13.7983 0.017836 0.093027 0.392394
2011-02-23 08:10:49 51°15.299 2°54.118 13.7759 0.017836 0.093028 0.392394
2011-02-23 08:10:54 51°15.314 2°54.1 13.7362 0.017836 0.093029 0.392394
2011-02-23 08:10:59 51°15.328 2°54.082 13.7415 0.017836 0.093032 0.35757
2011-02-23 08:11:04 51°15.343 2°54.063 13.7791 0.017836 0.093033 0.392394
2011-02-23 08:11:08 51°15.354 2°54.048 13.7647 0.017836 0.093033 0.392394
2011-02-23 08:11:14 51°15.372 2°54.026 13.8001 0.017836 0.093034 0.392394
2011-02-23 08:11:19 51°15.386 2°54.007 13.7517 0.017836 0.093037 0.392394
2011-02-23 08:11:24 51°15.4 2°53.988 13.7594 0.017836 0.093038 0.392394
2011-02-23 08:11:28 51°15.412 2°53.973 13.726 0.017836 0.093039 0.392394
2011-02-23 08:11:34 51°15.429 2°53.95 13.751 0.017836 0.09304 0.392394
2011-02-23 08:11:39 51°15.443 2°53.93 13.7608 0.017836 0.09304 0.392394
2011-02-23 08:11:44 51°15.457 2°53.911 13.7552 0.017836 0.093043 0.392394
2011-02-23 08:11:48 51°15.469 2°53.895 13.7543 0.017836 0.093045 0.392394
2011-02-23 08:11:54 51°15.486 2°53.872 13.7195 0.017836 0.093046 0.392394
2011-02-23 08:11:59 51°15.501 2°53.852 13.757 0.017836 0.093047 0.392394
2011-02-23 08:12:04 51°15.516 2°53.832 13.6951 0.017836 0.093049 0.35757
2011-02-23 08:12:09 51°15.53 2°53.813 13.7133 0.017836 0.093049 0.35757
2011-02-23 08:12:14 51°15.545 2°53.793 13.6895 0.017836 0.093049 0.35757
2011-02-23 08:12:19 51°15.56 2°53.774 13.705 0.017836 0.093051 0.35757
2011-02-23 08:12:24 51°15.576 2°53.756 13.7517 0.017836 0.093052 0.35757
2011-02-23 08:12:29 51°15.591 2°53.738 13.7637 0.017836 0.093053 0.35757
2011-02-23 08:12:34 51°15.607 2°53.719 13.7693 0.017836 0.093057 0.35757
2011-02-23 08:12:39 51°15.623 2°53.701 13.796 0.017836 0.093057 0.35757
2011-02-23 08:12:44 51°15.638 2°53.682 13.7992 0.017836 0.093057 0.35757
2011-02-23 08:12:49 51°15.653 2°53.664 13.7956 0.017836 0.09306 0.392394
2011-02-23 08:12:54 51°15.669 2°53.645 13.7828 0.017836 0.093063 0.35757
2011-02-23 08:12:59 51°15.684 2°53.625 13.7692 0.017836 0.093066 0.35757
2011-02-23 08:13:04 51°15.698 2°53.605 13.656 0.017836 0.093066 0.392394
2011-02-23 08:13:09 51°15.713 2°53.585 13.6194 0.017836 0.093067 0.392394
2011-02-23 08:13:14 51°15.727 2°53.566 13.6672 0.017836 0.093067 0.392394
2011-02-23 08:13:19 51°15.743 2°53.547 13.7675 0.017836 0.093068 0.35757
2011-02-23 08:13:24 51°15.758 2°53.529 13.7465 0.017836 0.093069 0.35757
2011-02-23 08:13:28 51°15.77 2°53.514 13.6896 0.017836 0.093072 0.322746
2011-02-23 08:13:34 51°15.788 2°53.491 13.534 0.017836 0.093073 0.392394
2011-02-23 08:13:39 51°15.803 2°53.472 13.6283 0.017836 0.093073 0.392394
2011-02-23 08:13:44 51°15.818 2°53.455 13.7441 0.017836 0.093073 0.35757
2011-02-23 08:13:48 51°15.831 2°53.442 13.7211 0.017836 0.093075 0.392394
2011-02-23 08:13:53 51°15.847 2°53.425 13.7446 0.017836 0.093079 0.35757
2011-02-23 08:13:59 51°15.866 2°53.405 13.7496 0.017836 0.093079 0.392394
2011-02-23 08:14:04 51°15.882 2°53.388 13.7763 0.017836 0.093082 0.35757
2011-02-23 08:14:08 51°15.895 2°53.375 13.7292 0.017836 0.093082 0.35757
2011-02-23 08:14:13 51°15.91 2°53.358 13.7352 0.017836 0.093087 0.392394
2011-02-23 08:14:19 51°15.929 2°53.338 13.7037 0.017836 0.093088 0.392394
2011-02-23 08:14:24 51°15.945 2°53.321 13.7354 0.017836 0.093088 0.35757
2011-02-23 08:14:28 51°15.957 2°53.307 13.711 0.017836 0.093091 0.35757
2011-02-23 08:14:34 51°15.976 2°53.287 13.6812 0.017836 0.093092 0.35757
2011-02-23 08:14:39 51°15.991 2°53.27 13.6443 0.017836 0.093092 0.35757
2011-02-23 08:14:44 51°16.007 2°53.253 13.6757 0.017836 0.093092 0.35757
2011-02-23 08:14:48 51°16.02 2°53.241 13.6589 0.017836 0.093095 0.35757
2011-02-23 08:14:54 51°16.039 2°53.222 13.6717 0.017836 0.093098 0.35757
2011-02-23 08:14:59 51°16.056 2°53.207 13.7021 0.017836 0.093098 0.35757
2011-02-23 08:15:04 51°16.072 2°53.193 13.7337 0.017836 0.093101 0.35757
2011-02-23 08:15:08 51°16.085 2°53.181 13.7448 0.017836 0.093101 0.35757
2011-02-23 08:15:14 51°16.105 2°53.164 13.7085 0.017836 0.093101 0.35757
2011-02-23 08:15:19 51°16.121 2°53.15 13.7259 0.017836 0.093104 0.35757
2011-02-23 08:15:24 51°16.138 2°53.135 13.7382 0.017836 0.093104 0.35757
2011-02-23 08:15:28 51°16.151 2°53.123 13.7151 0.017836 0.093107 0.392394
2011-02-23 08:15:34 51°16.17 2°53.103 13.7178 0.017836 0.093108 0.35757
2011-02-23 08:15:39 51°16.186 2°53.088 13.7072 0.017836 0.093108 0.35757
2011-02-23 08:15:44 51°16.202 2°53.072 13.7244 0.017836 0.093111 0.392394
2011-02-23 08:15:48 51°16.215 2°53.06 13.7216 0.017836 0.093113 0.35757
2011-02-23 08:15:53 51°16.231 2°53.044 13.6085 0.017836 0.093115 0.392394
2011-02-23 08:15:59 51°16.25 2°53.025 13.6193 0.017836 0.093114 0.35757
2011-02-23 08:16:04 51°16.267 2°53.012 13.6714 0.017836 0.093116 0.35757
2011-02-23 08:16:08 51°16.28 2°53 13.6866 0.017836 0.093116 0.35757
2011-02-23 08:16:13 51°16.297 2°52.987 13.7091 0.017836 0.093117 0.35757
2011-02-23 08:16:19 51°16.318 2°52.972 13.7245 0.017836 0.09312 0.35757
2011-02-23 08:16:24 51°16.335 2°52.96 13.7277 0.017836 0.093122 0.427218
2011-02-23 08:16:28 51°16.349 2°52.95 13.7433 0.017836 0.093124 0.392394
2011-02-23 08:16:33 51°16.366 2°52.939 13.7461 0.017836 0.093126 0.392394
2011-02-23 08:16:39 51°16.387 2°52.924 13.7134 0.017836 0.093126 0.392394
2011-02-23 08:16:44 51°16.404 2°52.912 13.7158 0.017836 0.093127 0.392394
2011-02-23 08:16:48 51°16.418 2°52.902 13.6914 0.017836 0.09313 0.392394
2011-02-23 08:16:54 51°16.438 2°52.887 13.728 0.017836 0.09313 0.35757
2011-02-23 08:16:59 51°16.455 2°52.875 13.6931 0.017836 0.093132 0.427218
2011-02-23 08:17:04 51°16.472 2°52.862 13.7184 0.017836 0.093136 0.392394
2011-02-23 08:17:08 51°16.486 2°52.852 13.6661 0.017836 0.093136 0.392394
2011-02-23 08:17:14 51°16.506 2°52.836 13.7371 0.017836 0.093136 0.427218
2011-02-23 08:17:19 51°16.524 2°52.824 13.6907 0.017836 0.093136 0.35757
2011-02-23 08:17:24 51°16.541 2°52.811 13.7137 0.017836 0.093139 0.35757
2011-02-23 08:17:28 51°16.554 2°52.801 13.7135 0.017836 0.093139 0.392394
2011-02-23 08:17:34 51°16.575 2°52.786 13.703 0.017836 0.09314 0.35757
2011-02-23 08:17:39 51°16.592 2°52.774 13.7256 0.017836 0.09314 0.35757
2011-02-23 08:17:44 51°16.609 2°52.761 13.6479 0.017836 0.093144 0.392394
2011-02-23 08:17:48 51°16.623 2°52.751 13.7041 0.017836 0.093144 0.35757
2011-02-23 08:17:54 51°16.643 2°52.736 13.5491 0.017836 0.093144 0.392394
2011-02-23 08:17:59 51°16.66 2°52.724 13.5251 0.017836 0.093147 0.392394
2011-02-23 08:18:04 51°16.677 2°52.712 13.5797 0.017836 0.093145 0.392394
2011-02-23 08:18:08 51°16.692 2°52.704 13.6415 0.017836 0.093145 0.392394
2011-02-23 08:18:13 51°16.709 2°52.695 13.666 0.017836 0.093145 0.392394
2011-02-23 08:18:19 51°16.731 2°52.685 13.6541 0.017836 0.093148 0.392394
2011-02-23 08:18:24 51°16.748 2°52.678 13.6303 0.017836 0.093153 0.392394
2011-02-23 08:18:28 51°16.763 2°52.672 13.6801 0.017836 0.093151 0.35757
2011-02-23 08:18:33 51°16.78 2°52.666 13.6799 0.017836 0.093154 0.35757
2011-02-23 08:18:39 51°16.802 2°52.659 13.7195 0.017836 0.093154 0.35757
2011-02-23 08:18:44 51°16.82 2°52.652 13.7174 0.017836 0.093155 0.322746
2011-02-23 08:18:48 51°16.834 2°52.647 13.6936 0.017836 0.093159 0.35757
2011-02-23 08:18:53 51°16.852 2°52.64 13.7327 0.017836 0.09316 0.35757
2011-02-23 08:18:59 51°16.873 2°52.632 13.7025 0.017836 0.093162 0.322746
2011-02-23 08:19:04 51°16.891 2°52.624 13.7185 0.017836 0.093165 0.322746
2011-02-23 08:19:08 51°16.905 2°52.617 13.7181 0.017836 0.093165 0.322746
2011-02-23 08:19:14 51°16.926 2°52.607 13.6683 0.017836 0.093165 0.322746
2011-02-23 08:19:19 51°16.944 2°52.599 13.6934 0.017836 0.093168 0.35757
2011-02-23 08:19:24 51°16.962 2°52.59 13.6522 0.017836 0.093166 0.35757
2011-02-23 08:19:28 51°16.976 2°52.583 13.6491 0.017836 0.093168 0.322746
2011-02-23 08:19:34 51°16.998 2°52.573 13.592 0.017836 0.09317 0.322746
2011-02-23 08:19:39 51°17.016 2°52.566 13.6187 0.017836 0.09317 0.322746
2011-02-23 08:19:44 51°17.034 2°52.559 13.5717 0.017836 0.093171 0.322746
2011-02-23 08:19:48 51°17.048 2°52.554 13.6848 0.017836 0.093172 0.35757